[{"header": {"dx": 0.06612293990616946, "dy": 0.0552356325346848, "nx": 98, "ny": 59, "la1": 35.046912555036876, "la2": 31.78801023549047, "lo1": -121.43107172385933, "lo2": -114.95102361305473, "refTime": "2026041521", "parameterCategory": 1, "parameterNumber": 2}, "data": [8.18, 8.46, 8.75, 9.44, 9.76, 10.43, 10.78, 10.81, 11.44, 11.42, 11.37, 11.2, 12.93, 12.3, 11.88, 11.44, 11.57, 11.11, 10.79, 6.94, 0.0, 0.0, 0.0, 0.0, 0.0, 0.0, -4.48, -3.96, -3.82, -3.82, -2.06, 0.0, 0.0, 1.84, 3.25, 4.4, 4.66, 5.21, 6.01, 7.9, 8.0, 9.7, 10.4, 10.48, 12.14, 13.77, 15.47, 13.5, 13.25, 13.7, 14.26, 14.71, 15.2, 15.65, 15.6, 15.46, 15.25, 14.95, 14.03, 13.43, 13.19, 13.19, 12.9, 12.5, 12.11, 12.5, 12.5, 12.5, 13.29, 14.07, 14.71, 13.99, 14.38, 14.84, 14.53, 13.99, 14.47, 13.88, 14.75, -0.0, -0.0, 13.41, 12.96, 12.52, 12.07, 11.62, 11.84, 7.9, 3.07, -0.0, -0.0, 2.91, 4.38, 5.99, 7.16, 8.58, 8.54, 6.87, 8.18, 8.2, 8.49, 9.06, 9.76, 10.09, 10.12, 10.46, 11.17, 11.42, 10.79, 11.97, 11.6, 11.55, 12.14, 11.71, 10.52, 11.61, 11.45, 9.08, 3.25, 0.0, 0.0, 0.0, 0.0, 0.0, -2.28, -3.82, -3.82, -3.44, -2.02, 0.0, 0.0, 1.39, 2.21, 3.52, 3.6, 4.0, 4.66, 5.98, 8.85, 10.47, 9.96, 9.89, 12.17, 14.03, 13.99, 13.67, 13.67, 14.7, 14.75, 15.2, 15.2, 15.16, 15.05, 15.46, 15.25, 14.53, 14.42, 13.43, 13.86, 13.7, 13.07, 12.66, 12.66, 12.11, 12.5, 12.5, 13.29, 14.71, 15.11, 15.27, 15.47, 14.9, 14.75, 14.31, 14.31, 13.88, 14.75, -0.0, -0.0, 13.41, 12.96, 12.52, 12.07, 11.62, 11.84, 7.9, 3.07, -0.0, -0.0, 2.91, 4.38, 5.99, 7.16, 8.58, 8.54, 6.87, 8.18, 8.2, 8.2, 8.49, 9.16, 9.46, 10.12, 10.46, 10.47, 10.47, 10.55, 9.78, 11.38, 10.99, 10.92, 10.92, 11.21, 11.21, 11.45, 11.12, 5.98, 3.04, 0.0, 0.0, 0.0, -1.76, -1.76, -1.76, -1.58, -1.64, -2.09, 0.0, 0.0, 2.19, 2.33, 3.32, 3.8, 3.63, 3.99, 5.64, 7.41, 8.53, 9.77, 10.12, 12.07, 13.02, 12.51, 13.19, 14.69, 15.2, 15.2, 15.2, 15.15, 15.02, 14.42, 14.81, 14.81, 14.53, 13.99, 13.99, 13.86, 13.28, 12.66, 12.66, 12.11, 12.5, 13.48, 14.3, 14.3, 15.27, 15.41, 15.99, 15.65, 15.2, 14.75, 14.75, 14.42, 13.59, -0.0, -0.0, -0.0, 9.48, 11.6, 10.8, 10.4, 11.03, 10.0, 5.75, 1.39, -0.0, -0.0, 3.2, 4.66, 5.99, 8.58, 9.48, 8.44, 5.6, 8.18, 8.2, 8.2, 8.49, 8.78, 9.46, 9.78, 9.8, 10.47, 10.47, 9.84, 9.21, 10.56, 10.58, 10.58, 10.58, 10.58, 11.21, 10.92, 11.21, 8.59, 5.0, 0.0, 0.0, -1.98, -2.54, -1.69, 0.0, 0.0, 0.0, 0.0, 0.0, 0.0, 3.07, 4.65, 3.98, 3.25, 4.23, 3.51, 4.81, 6.72, 8.67, 9.64, 10.25, 11.2, 12.18, 13.37, 14.25, 14.75, 14.75, 14.71, 15.15, 14.55, 14.55, 14.37, 14.37, 14.37, 14.37, 14.31, 13.88, 14.23, 13.28, 13.07, 12.11, 12.11, 13.48, 14.3, 14.53, 16.19, 17.13, 16.22, 15.53, 15.65, 0.0, 0.0, 13.86, 13.19, -0.0, -6.8, -6.2, -0.0, 9.48, 9.17, 6.45, 5.0, 6.97, 6.21, 1.64, -0.0, -0.0, 1.68, 3.2, 4.38, 7.11, 8.54, 9.48, 7.54, 3.04, 7.76, 7.93, 8.2, 8.49, 8.49, 9.46, 9.48, 9.8, 9.8, 9.8, 9.49, 8.87, 9.89, 10.4, 10.0, 10.58, 10.2, 9.97, 10.2, 10.35, 10.79, 6.44, 2.28, 0.0, 0.0, 0.0, 0.0, 0.0, 0.0, 1.28, 1.33, 1.39, 2.82, 3.04, 5.31, 4.52, 4.81, 5.46, 3.39, 4.47, 6.21, 8.61, 10.59, 11.88, 12.39, 13.37, 14.07, 14.3, 14.75, 15.14, 14.55, 14.11, 14.11, 14.31, 14.37, 14.58, 14.58, 14.31, 14.31, 14.07, 13.7, 12.87, 12.66, 13.48, 13.48, 15.11, 15.52, 15.11, 16.75, 18.38, 18.42, 15.99, 18.33, -5.51, 0.0, 12.96, 4.38, -0.0, -9.8, -9.48, -0.0, 7.19, 5.4, 2.19, 3.07, 3.19, 2.93, 2.82, 1.66, -0.0, 1.77, 3.14, 5.6, 7.78, 9.17, 8.73, 5.8, 2.72, 7.76, 7.93, 8.2, 8.49, 8.49, 8.51, 9.17, 9.17, 9.8, 9.8, 9.16, 8.53, 9.89, 10.4, 10.38, 10.5, 10.17, 10.4, 9.58, 10.2, 9.67, 8.53, 4.98, 0.0, 0.0, 0.0, 0.0, 0.0, 0.0, 0.0, 2.39, 3.61, 4.6, 5.45, 6.4, 3.81, 0.0, 0.0, 0.0, 2.0, 4.65, 8.94, 11.28, 13.57, 13.96, 14.75, 14.75, 14.03, 13.7, 13.44, 13.37, 13.37, 13.44, 13.88, 14.55, 14.55, 14.55, 14.55, 14.51, 14.07, 13.15, 12.72, 13.48, 13.59, 13.65, 14.4, 14.78, 14.03, 15.52, 17.99, 19.02, 15.71, 15.25, 18.78, -0.0, -0.0, 3.25, 4.1, -4.1, -10.79, -3.82, -0.0, 1.84, 1.64, 1.44, 2.82, 2.93, 3.25, 3.58, 1.77, 1.61, 4.71, 7.11, 7.78, 8.54, 7.11, 2.81, 2.72, 7.76, 7.53, 8.2, 7.95, 8.22, 8.51, 8.87, 9.17, 9.17, 9.46, 9.16, 8.24, 9.52, 9.58, 10.8, 9.77, 10.17, 10.4, 9.58, 9.6, 9.6, 10.92, 10.46, 11.21, 12.52, 11.03, 8.22, 5.4, 0.0, 0.0, 1.84, 3.11, 5.9, 6.64, 7.9, 8.1, -12.52, -13.41, -8.22, -1.69, 0.0, 11.6, 14.3, 14.75, 14.53, 13.2, 14.07, 12.65, 11.88, 12.39, 13.39, 12.87, 13.8, 14.31, 14.11, 13.67, 14.25, 14.25, 14.25, 13.59, 13.09, 12.56, 13.59, 13.1, 12.56, 13.23, 14.13, 14.07, 14.3, 15.99, 17.85, 16.37, 12.01, 10.33, 5.37, 5.37, 7.82, 9.48, -0.0, -8.05, -6.97, -1.91, -0.0, 1.71, 1.71, 3.04, 3.81, 5.63, 3.93, 3.25, 3.25, 6.0, 8.05, 8.05, 7.11, 4.1, 2.72, 2.62, 7.76, 7.53, 7.8, 7.95, 8.22, 8.51, 8.53, 9.17, 9.17, 8.85, 8.22, 7.55, 9.17, 9.67, 10.24, 9.42, 10.0, 10.73, 9.9, 9.77, 10.08, 10.89, 12.03, 11.84, 9.09, 8.82, 9.2, 9.6, 11.62, 7.9, 1.84, 3.68, 5.75, 8.38, 10.21, 11.18, 2.49, -5.0, -11.2, -11.62, -0.0, 3.82, 5.6, 8.31, 9.22, 11.38, 11.77, 12.7, 12.65, 12.79, 11.62, 12.45, 13.37, 13.63, 13.81, 13.86, 13.86, 13.86, 13.41, 12.88, 11.98, 12.33, 11.68, 10.18, 10.6, 12.78, 14.57, 14.53, 13.99, 14.84, 16.44, 16.39, 10.05, 7.0, 6.8, 8.18, 10.12, 9.48, 3.14, -2.81, -8.31, -7.51, -2.37, -0.0, -0.0, 2.2, 4.24, 4.24, 4.1, 4.1, 5.11, 6.43, 8.73, 9.02, 6.0, 3.96, 2.62, 2.52, 7.53, 7.53, 7.8, 7.95, 8.22, 8.23, 8.23, 8.58, 8.56, 8.53, 8.22, 7.22, 8.15, 8.22, 8.82, 8.82, 8.82, 9.16, 9.58, 9.38, 10.27, 11.18, 11.62, 9.82, 7.85, 8.85, 6.64, 6.95, 9.55, 10.73, 8.55, 7.59, 9.6, 9.3, 10.27, 8.93, 6.44, 2.1, 2.28, 2.19, 3.96, 5.6, 6.44, 8.38, 8.94, 9.8, 12.36, 13.05, 13.18, 13.03, 13.81, 12.42, 13.19, 13.86, 13.86, 13.81, 13.8, 12.9, 12.44, 11.62, 12.35, 10.75, 8.43, 8.29, 10.6, 13.41, 15.87, 15.61, 14.69, 14.75, 16.09, 15.69, 13.23, 9.39, 10.43, 10.12, 9.8, 5.8, 2.63, 2.5, -0.0, -10.73, -11.9, -9.8, -3.96, -0.0, 3.14, 3.14, 2.45, 4.81, 6.67, 8.1, 7.54, 7.79, 6.0, 3.96, 3.68, 3.82, 7.53, 7.53, 7.8, 7.95, 8.22, 8.23, 8.23, 8.24, 8.87, 8.54, 8.52, 8.52, 8.21, 8.24, 8.69, 8.41, 7.36, 7.9, 7.9, 9.2, 10.41, 10.73, 8.22, 4.32, 4.15, 5.0, 4.4, 5.9, 8.58, 9.97, 8.93, -0.0, 1.93, 3.98, 7.26, 8.22, 7.59, 4.44, 5.2, 6.94, 7.24, 8.85, 9.16, 9.46, 8.93, 9.84, 10.18, 11.9, 13.42, 14.24, 13.86, 14.23, 14.25, 13.86, 13.67, 13.8, 13.02, 11.45, 10.41, 12.52, 10.43, 4.54, 6.87, 7.2, 10.69, 14.71, 17.09, 16.05, 13.86, 13.88, 14.55, 15.65, 15.27, 14.39, 15.65, 13.86, 6.0, -0.0, -0.0, 2.35, 4.81, -0.0, -16.05, -15.65, -13.86, -13.41, -9.8, -0.0, -0.0, 4.1, 5.8, 6.44, 5.6, 6.43, 5.8, 4.39, 4.39, 4.39, 7.53, 7.53, 7.8, 7.55, 8.22, 8.23, 8.23, 8.24, 8.54, 8.85, 9.17, 8.85, 9.48, 9.42, 10.12, 9.16, 9.66, 10.61, 12.14, 13.41, 12.79, 6.6, 2.72, 4.65, 3.14, 2.6, 2.49, 2.39, 5.46, 6.95, 6.17, 3.7, 3.87, 5.46, 6.95, 9.97, 9.08, 7.44, 7.65, 8.85, 10.23, 10.01, 9.86, 10.35, 8.22, 7.44, 8.53, 10.19, 11.85, 12.25, 13.7, 14.94, 15.41, 15.71, 16.09, 16.15, 13.23, 10.52, 6.95, 11.99, 2.16, 3.2, 5.65, 7.71, 11.38, 14.46, 17.94, 17.88, 13.97, 9.77, 9.8, 12.27, 15.27, 14.39, 10.75, 13.41, -5.2, -3.53, -3.47, -0.0, 5.64, 5.81, -0.0, -16.99, -15.61, -14.75, -15.2, -15.2, 14.3, -0.0, -0.0, -0.0, 2.45, 5.6, 5.99, 6.43, 6.43, 6.43, 7.53, 7.8, 7.55, 7.55, 8.22, 7.96, 8.23, 8.53, 8.83, 8.83, 9.15, 9.15, 9.8, 10.01, 10.02, 10.75, 11.28, 11.96, 12.96, 13.67, 13.57, 12.65, 10.12, 8.68, 3.25, -0.0, -0.0, -0.0, 2.6, 5.95, 6.71, 5.95, 6.87, 6.58, 7.9, 8.73, 8.07, 8.75, 9.17, 10.35, 11.2, 11.21, 10.88, 9.97, 6.44, 5.7, 7.24, 8.85, 10.37, 11.09, 10.12, 12.56, 12.22, 9.98, 10.66, 15.38, 16.09, 5.16, 0.0, -4.38, -0.0, 2.79, 5.51, 7.71, 9.47, 13.59, 17.64, 22.8, 0.0, 0.0, 2.89, 6.2, 6.6, 3.69, 0.0, -9.6, -6.45, -6.6, -8.68, -4.95, 5.09, 3.9, -0.0, -15.99, -18.78, -19.22, -16.54, -15.2, -13.19, -9.8, -8.85, -3.68, -0.0, 4.32, 5.6, 7.19, 7.19, 7.19, 7.55, 7.55, 7.55, 7.55, 8.22, 7.96, 8.23, 8.53, 8.53, 8.83, 9.48, 9.48, 9.8, 10.41, 10.51, 11.72, 12.61, 12.91, 13.41, 13.84, 14.28, 14.7, 15.08, 13.7, 10.12, 4.38, -0.0, -0.0, -0.0, -0.0, 6.71, 7.15, 6.87, 7.27, 7.27, 7.81, 7.74, 9.3, 9.77, 10.38, 11.13, 11.13, 10.46, 7.68, 4.6, 2.6, 5.2, 7.24, 7.78, 8.05, 7.28, 6.65, 3.47, 1.68, 2.79, 3.01, 14.22, 0.0, -13.39, -4.9, -0.0, 2.52, 5.51, 6.66, 8.2, 10.14, 8.6, -0.0, -13.64, -6.88, 0.0, 0.0, 0.0, 0.0, -6.95, -1.91, -0.0, -3.16, -8.93, -14.79, -7.2, -0.0, -0.0, -0.0, -0.0, -0.0, -19.67, -15.99, -11.38, -11.9, -13.44, -9.67, -3.53, -0.0, 5.6, 7.78, 7.78, 6.9, 7.55, 7.55, 7.55, 7.55, 8.22, 7.96, 8.23, 8.53, 8.53, 9.17, 9.48, 9.48, 9.8, 10.13, 10.73, 11.22, 12.53, 12.94, 13.19, 13.8, 14.29, 14.3, 14.75, 14.75, 14.11, 12.79, 9.8, 6.2, -0.0, -0.0, 3.39, 6.44, 7.9, 7.56, 6.95, 7.47, 7.87, 8.99, 9.55, 10.28, 10.52, 9.63, 8.58, 4.6, 2.39, 2.49, 2.97, 5.0, 5.2, 5.6, 6.44, 4.48, 2.37, 2.37, 2.45, 6.21, 9.39, 18.24, 9.6, -1.38, -0.0, 1.73, 4.01, 5.96, 5.65, 5.23, 4.23, -0.0, -15.17, -8.47, -7.49, -7.07, -8.2, -9.2, -1.58, -0.0, 1.83, 4.23, -0.0, -15.19, -16.12, -13.76, -11.06, -6.8, 5.81, 7.4, 5.65, -0.0, -0.0, -11.7, -13.88, -10.84, -7.9, -0.0, 8.85, 7.19, 7.19, 4.81, 7.55, 7.55, 7.55, 7.83, 8.22, 7.96, 8.23, 8.81, 8.53, 9.17, 9.17, 9.48, 9.8, 10.13, 10.41, 10.88, 11.87, 12.53, 12.89, 13.05, 13.25, 13.76, 14.27, 14.3, 14.3, 13.86, 13.67, 12.87, 11.16, 6.0, 5.6, 5.7, 7.9, 7.27, 7.27, 6.42, 7.59, 8.34, 10.27, 9.6, 9.63, 7.59, 4.4, 3.65, 1.93, 1.93, 1.93, 4.6, 4.8, 5.0, 5.2, 5.0, 4.8, 4.2, 4.4, 6.44, 9.3, 12.03, 13.92, 6.87, 1.17, 1.83, 4.38, 4.52, 4.05, 4.18, 4.54, 8.74, 13.39, 9.0, -2.91, -11.04, -19.51, -1.55, -0.0, 1.83, 5.51, 8.0, 7.6, -0.0, -17.43, -16.99, -14.84, -12.72, -12.96, 8.43, 6.8, 3.9, -0.0, -0.0, -12.01, -13.01, -11.03, -0.0, -0.0, 4.1, 2.54, 2.54, 6.9, 7.55, 7.83, 7.83, 8.22, 8.22, 8.51, 8.23, 8.87, 9.17, 9.17, 9.48, 9.8, 10.47, 10.41, 10.96, 11.06, 11.72, 12.45, 12.85, 13.12, 13.21, 13.74, 14.71, 14.7, 14.75, 13.86, 13.86, 13.28, 13.01, 11.16, 8.53, 7.27, 7.59, 5.29, 4.74, 7.27, 8.72, 9.6, 8.82, 5.86, 3.7, 3.25, 3.11, 1.93, 1.84, 3.65, 3.82, 4.6, 6.17, 6.71, 6.97, 6.97, 6.44, 6.64, 8.8, 9.2, 9.97, 11.52, 8.68, 5.4, 5.98, 5.2, 7.24, 7.24, 7.78, 8.3, 11.87, 13.8, 19.08, 0.0, -18.78, -5.16, -0.0, 1.51, 5.27, 7.81, 9.95, 10.65, 8.2, -18.33, -16.39, -15.19, -14.31, -12.07, -11.18, -0.0, -0.0, -0.0, -0.0, -0.0, -11.6, -5.8, -0.0, -0.0, -0.0, -0.0, -0.0, 6.9, 7.83, 7.83, 7.83, 8.22, 8.22, 8.51, 8.51, 8.87, 9.17, 9.17, 9.48, 10.13, 10.13, 10.41, 10.73, 10.88, 11.33, 11.72, 12.58, 12.92, 13.21, 13.31, 13.83, 14.3, 14.27, 14.71, 14.7, 14.66, 14.3, 13.01, 7.78, 5.75, 5.0, 3.52, 4.2, 4.88, 6.44, 6.17, 4.4, 1.93, 2.17, 3.25, 2.46, 3.11, 3.65, 5.29, 5.29, 7.27, 6.17, 6.17, 6.44, 6.71, 7.59, 8.58, 8.23, 8.82, 9.2, 9.42, 9.17, 8.85, 8.94, 7.59, 8.93, 8.93, 8.82, 9.3, 9.3, 12.87, 17.43, 19.59, -0.0, -0.0, 1.9, 5.14, 9.12, 11.53, 11.8, 11.43, 10.41, 9.92, 17.43, -16.99, -12.65, -7.93, -5.2, -5.4, -2.54, -0.0, 2.72, 3.58, -0.0, -0.0, -0.0, -0.0, 1.98, 2.06, 2.06, 7.16, 7.83, 7.83, 7.83, 8.22, 8.22, 8.51, 8.51, 9.17, 9.17, 9.17, 9.8, 9.8, 10.13, 10.41, 10.37, 10.96, 11.44, 11.6, 12.08, 12.49, 13.05, 13.18, 13.38, 13.38, 14.16, 14.53, 14.28, 14.23, 14.75, 12.27, 8.05, 6.44, 5.75, 4.8, 3.25, 1.62, 2.49, 4.4, 1.93, 1.93, 1.93, 3.65, 3.82, 5.29, 6.42, 6.7, 8.03, 8.03, 7.27, 6.17, 6.17, 6.17, 7.27, 8.23, 8.23, 8.82, 9.2, 9.58, 9.58, 10.35, 10.79, 9.6, 10.41, 10.41, 9.64, 9.26, 10.08, 11.84, 15.34, 17.25, 10.91, 9.42, 11.04, 9.67, 11.19, 10.73, 11.27, 10.42, 8.4, 9.67, 11.17, 5.65, -0.0, -0.0, -0.0, -2.13, -6.67, -2.63, -0.0, 6.4, 3.14, -0.0, -0.0, 1.83, 3.56, 3.96, 3.96, 7.16, 7.83, 7.83, 7.83, 7.83, 8.22, 8.51, 8.51, 9.17, 9.17, 9.48, 9.48, 9.8, 10.13, 9.8, 10.58, 10.01, 10.68, 10.52, 11.16, 12.65, 13.91, 13.15, 12.94, 12.22, 13.15, 10.12, 11.88, 12.72, 13.86, 4.38, 5.8, 7.51, 7.24, 6.71, 2.1, 2.02, 2.1, 4.15, 2.6, 3.11, 3.25, 5.0, 5.75, 7.26, 7.59, 8.38, 9.2, 8.82, 7.27, 6.17, 6.17, 6.17, 6.17, 7.27, 7.27, 8.82, 8.73, 10.35, 11.03, 11.03, 11.4, 10.96, 9.7, 9.83, 9.39, 9.39, 10.28, 10.65, 13.75, 15.99, 16.74, 19.34, 20.74, 15.19, 13.27, 11.38, 8.77, 7.6, 7.8, 7.6, 7.8, 5.65, 2.72, 3.25, 1.66, -0.0, -2.13, -4.98, -0.0, 2.35, 2.2, -0.0, -0.0, 3.81, 5.63, 6.2, 6.2, 7.16, 7.83, 7.83, 7.83, 7.83, 8.22, 8.51, 8.51, 8.87, 9.17, 9.48, 9.48, 9.8, 9.8, 10.43, 10.06, 9.77, 9.16, 10.12, 10.56, 12.2, 13.41, 12.79, 11.35, 11.33, 11.6, 10.79, 13.41, -0.0, -0.0, 3.04, 5.6, 8.53, 8.53, 8.22, 4.8, 4.8, 4.8, 3.98, 3.82, 4.8, 5.95, 7.15, 7.27, 7.9, 9.08, 9.2, 9.2, 7.27, 5.9, 3.65, 5.29, 5.52, 5.75, 6.3, 6.95, 8.73, 8.15, 9.6, 11.03, 11.02, 10.73, 10.73, 10.73, 10.28, 10.28, 10.28, 11.18, 11.98, 12.85, 15.69, 18.91, 23.67, 26.11, 20.92, 16.41, 13.8, 7.2, 7.4, 7.6, 7.0, 8.21, 5.34, 3.25, 3.36, 3.25, 3.25, 3.56, -4.81, -3.96, -2.2, -0.0, -0.0, -0.0, 3.81, 6.8, 6.6, 6.6, 7.16, 7.83, 7.83, 7.83, 7.83, 8.51, 8.51, 8.51, 9.16, 9.46, 9.46, 9.8, 9.8, 9.8, 10.11, 10.09, 10.06, 9.5, 9.21, 10.03, 10.82, 11.3, 10.52, 11.25, 12.27, 13.28, 13.86, 12.3, 6.7, 5.2, 5.2, 8.22, 8.22, 9.3, 8.22, 7.9, 6.2, 4.8, 4.8, 5.75, 6.98, 6.2, 7.15, 7.85, 7.65, 9.42, 8.43, 8.82, 6.17, 3.82, 3.65, 3.82, 5.52, 5.75, 6.7, 7.27, 8.49, 8.94, 10.68, 11.02, 11.18, 11.18, 10.73, 11.18, 10.28, 10.73, 10.73, 11.91, 12.58, 13.15, 15.18, 18.14, 23.25, 24.29, 18.42, 17.1, 4.34, 2.94, 4.54, 5.34, 7.0, 7.0, 5.18, 4.71, 4.87, 4.71, 4.71, 4.24, 2.91, -3.32, -3.96, -4.24, -2.35, -0.0, 2.28, 6.6, 8.18, 8.18, 7.16, 7.83, 7.83, 7.83, 8.51, 8.51, 8.51, 8.78, 9.16, 9.46, 9.46, 10.12, 9.8, 10.11, 10.11, 10.11, 10.41, 10.47, 10.52, 11.6, 12.56, 11.29, 8.51, 8.78, 10.58, 12.79, 14.11, 12.96, 11.95, 10.8, 10.8, 8.22, 10.4, 10.4, 10.4, 7.9, 8.22, 6.97, 6.71, 5.75, 6.2, 6.2, 6.5, 7.02, 6.71, 7.59, 8.38, 6.95, 3.82, 1.69, 3.25, 3.39, 5.52, 6.98, 6.7, 6.98, 7.56, 10.01, 10.4, 10.58, 10.28, 10.32, 10.6, 10.96, 11.18, 11.18, 11.4, 11.45, 12.3, 13.7, 14.38, 18.49, 23.69, 0.0, 0.0, 12.52, -5.37, -3.68, -0.0, 2.0, 3.79, 5.81, 3.9, 3.3, 4.52, 4.24, 4.24, 4.52, 4.24, -0.0, -1.71, -6.0, -5.31, -2.81, -0.0, 2.81, 5.48, 5.48, 7.16, 7.16, 7.16, 8.11, 8.51, 8.51, 8.51, 8.78, 9.16, 9.46, 9.46, 9.8, 10.12, 9.8, 10.11, 10.11, 10.43, 10.47, 11.17, 11.87, 12.86, 12.18, 10.41, 8.54, 9.48, 11.69, 12.79, 13.63, 12.88, 12.52, 11.84, 11.28, 10.4, 11.28, 10.4, 10.4, 8.22, 6.97, 5.98, 5.98, 6.45, 5.77, 6.76, 6.16, 6.97, 6.71, 7.59, 3.49, 1.54, 1.69, 3.25, 4.8, 5.52, 6.98, 5.52, 6.7, 7.27, 9.17, 10.79, 9.11, 9.29, 9.2, 8.22, 10.4, 11.18, 10.6, 10.4, 10.38, 10.4, 11.5, 13.15, 14.3, -26.11, -11.53, -7.2, -9.39, -8.85, -7.82, -5.37, -2.05, -0.0, 1.94, 1.73, 3.39, 4.66, 4.38, 4.38, 4.52, 4.37, 6.17, 1.61, -0.0, -6.4, -6.4, -0.0, -0.0, 2.35, 2.35, 7.16, 7.16, 7.16, 7.83, 8.51, 8.51, 8.51, 8.78, 8.78, 9.46, 9.46, 9.8, 10.12, 10.12, 10.11, 9.8, 10.46, 10.81, 10.81, 11.17, 11.79, 11.99, 11.36, 10.73, 9.76, 10.59, 11.77, 13.02, 12.85, 12.86, 12.52, 12.07, 11.4, 10.96, 10.84, 10.0, 8.94, 7.9, 6.97, 5.98, 6.45, 5.77, 6.76, 6.16, 6.76, 6.5, 5.6, 4.15, 1.76, 1.84, 3.68, 5.0, 5.52, 5.52, 5.29, 6.42, 5.98, 7.85, 10.12, 9.97, 8.77, 9.11, 9.3, 11.62, 7.9, 5.4, 7.54, 8.85, 9.58, 10.75, 10.84, -0.0, -25.93, -26.72, -15.69, -12.72, -9.48, -7.78, -6.6, -5.99, -1.72, -0.0, -0.0, 3.1, 4.66, 4.66, 4.66, 4.66, 6.17, 7.82, 6.2, 6.0, -0.0, -2.72, -0.0, -0.0, -0.0, -0.0, 7.16, 7.16, 7.16, 7.57, 8.11, 8.51, 8.51, 8.51, 8.78, 9.16, 9.46, 9.8, 9.8, 10.12, 10.12, 10.12, 10.12, 10.13, 10.47, 10.47, 11.09, 11.75, 11.99, 11.77, 11.38, 11.12, 11.5, 11.99, 12.45, 12.56, 12.83, 12.96, 12.52, 11.62, 10.96, 10.41, 10.0, 8.94, 6.71, 5.98, 6.45, 5.77, 6.5, 7.27, 7.27, 7.59, 5.98, 3.39, 2.39, 2.13, 3.08, 5.6, 5.52, 4.8, 4.6, 6.42, 6.42, 6.3, 8.22, 8.85, 8.94, 8.72, 8.18, 4.8, 1.91, 3.32, 5.99, 8.53, 10.04, 11.51, 13.41, 15.53, 21.9, -24.79, -26.29, -20.56, -16.44, -12.22, -8.58, -7.44, -4.87, -1.72, -0.0, 1.48, 3.58, 3.58, 4.66, 5.99, 7.38, 9.61, 10.19, 9.44, 6.4, -0.0, -0.0, 1.72, 1.96, 1.96, 7.16, 7.16, 7.16, 7.85, 8.11, 8.51, 8.51, 8.51, 8.87, 9.46, 9.46, 9.8, 9.8, 10.12, 10.12, 9.8, 9.8, 10.13, 10.47, 10.47, 10.82, 11.42, 11.75, 11.83, 12.18, 11.38, 11.6, 11.6, 11.85, 11.6, 11.92, 12.79, 12.52, 12.07, 11.62, 11.18, 10.41, 9.6, 7.9, 5.75, 6.2, 6.45, 6.5, 7.27, 8.15, 8.93, 9.67, 5.7, 1.39, 2.13, 2.19, 3.53, 3.96, 5.4, 5.0, 6.7, 7.27, 6.95, 7.27, 8.22, 9.42, 10.35, 7.81, 5.46, 4.4, 4.24, 7.28, 8.85, 11.92, 12.39, 12.07, 14.3, 16.99, 0.0, -23.38, -25.59, -21.8, -16.96, -9.46, -7.44, -7.44, -3.81, -0.0, -0.0, 1.58, 1.73, 4.81, 5.99, 8.85, 8.43, 9.0, 9.61, 5.99, 3.79, 1.53, 3.47, 4.87, 4.87, 7.44, 7.44, 7.44, 7.85, 7.85, 8.51, 8.51, 8.51, 9.17, 9.46, 9.46, 9.8, 9.8, 10.12, 10.12, 9.8, 9.8, 10.13, 10.13, 10.47, 10.82, 11.18, 10.81, 11.69, 11.83, 11.77, 11.97, 11.6, 11.85, 11.85, 12.14, 11.72, 12.04, 11.91, 11.91, 11.62, 11.62, 10.84, 8.58, 6.17, 5.75, 6.45, 6.76, 7.59, 8.37, 10.0, 10.84, 7.27, 1.39, 1.93, 2.1, 3.21, 3.25, 4.18, 5.54, 6.98, 6.7, 7.27, 6.01, 7.27, 10.35, 10.0, 10.0, 6.87, 5.6, 5.77, 7.02, 10.55, 11.92, 12.86, 12.96, 13.41, 14.75, 16.99, 19.08, -27.27, -24.4, -19.57, -9.33, -8.54, -8.93, -7.19, -3.93, -0.0, -0.0, 1.63, 5.49, 8.29, 8.06, 7.82, 8.06, 8.77, 6.87, 4.01, 3.3, 4.52, 6.4, 6.4, 7.19, 7.19, 7.44, 7.85, 7.85, 7.85, 8.51, 8.51, 8.81, 9.17, 9.46, 9.8, 10.12, 10.12, 10.12, 9.8, 9.8, 9.8, 9.48, 9.83, 10.18, 10.47, 10.81, 11.16, 11.5, 11.64, 11.77, 11.77, 11.39, 11.2, 10.94, 10.8, 11.09, 11.61, 11.45, 11.4, 11.62, 10.84, 10.0, 8.58, 7.9, 7.26, 6.5, 6.69, 6.95, 9.6, 10.28, 7.27, 1.22, 1.84, 2.94, 3.98, 4.36, 4.6, 5.69, 7.44, 7.9, 6.7, 5.98, 7.27, 9.48, 10.21, 10.0, 8.53, 6.16, 6.94, 10.18, 11.2, 11.71, 12.96, 14.3, 14.3, 13.41, 13.86, 15.08, 15.36, -0.0, -18.48, -13.53, -9.75, -10.0, -9.08, -6.9, -2.06, -0.0, -0.0, 3.58, 7.0, 7.0, 6.6, 7.32, 7.76, 5.81, 5.37, 5.23, 6.35, 6.17, 6.17, 7.19, 7.19, 7.19, 7.85, 7.85, 7.85, 8.23, 8.81, 8.81, 9.17, 9.17, 9.46, 10.12, 10.12, 9.78, 9.8, 9.48, 9.8, 9.48, 9.83, 9.83, 9.84, 10.45, 11.16, 11.5, 11.12, 11.26, 11.26, 11.2, 11.39, 10.8, 10.55, 10.8, 11.09, 11.18, 11.46, 11.62, 11.18, 10.84, 8.58, 7.9, 6.98, 6.2, 6.7, 5.99, 7.9, 8.72, 3.65, 1.84, 2.49, 3.82, 4.8, 4.99, 5.45, 6.98, 7.59, 8.53, 7.26, 7.59, 8.49, 9.48, 10.0, 10.24, 8.85, 7.95, 10.37, 11.09, 11.87, 11.62, 11.55, 13.53, 14.4, 13.77, 13.33, 14.19, 11.73, 5.31, -0.0, -16.1, -16.48, -11.3, -9.2, -10.01, -5.4, -2.54, -0.0, 1.9, 5.81, 7.54, 9.73, 9.44, 8.43, 9.09, 7.2, 7.6, 7.6, 6.72, 6.72, 7.19, 7.19, 7.19, 7.59, 7.85, 7.85, 8.53, 8.53, 8.81, 9.17, 9.17, 9.17, 10.12, 10.12, 10.12, 9.8, 9.48, 9.8, 9.17, 9.5, 9.5, 9.84, 10.19, 10.55, 10.55, 10.9, 10.9, 11.26, 11.02, 11.2, 11.39, 10.8, 10.55, 10.4, 10.68, 11.03, 11.46, 11.18, 10.96, 9.6, 8.58, 7.59, 6.98, 5.95, 6.5, 8.22, 6.98, 4.18, 3.51, 5.75, 6.2, 6.77, 6.17, 6.17, 6.98, 7.59, 6.95, 8.49, 8.93, 9.09, 9.6, 10.0, 10.24, 8.22, 9.66, 10.61, 11.37, 12.79, 11.06, 9.46, 9.86, 13.28, 16.09, 16.99, 16.31, 3.77, -0.0, 2.16, -0.0, -15.71, -20.38, -12.35, -11.4, -11.2, -6.45, -0.0, 2.72, 7.36, 10.43, 12.27, 12.27, 12.22, 11.06, 7.76, 7.2, 7.8, 7.08, 7.08, 6.94, 6.94, 7.19, 7.59, 7.59, 8.15, 8.53, 8.53, 8.53, 8.87, 9.17, 9.17, 9.48, 9.48, 9.8, 9.48, 9.48, 9.17, 9.5, 9.5, 9.84, 9.84, 10.19, 10.19, 10.55, 10.9, 10.9, 10.87, 10.66, 11.02, 10.81, 10.99, 10.35, 10.55, 10.4, 10.27, 10.6, 11.18, 10.73, 10.52, 9.96, 8.58, 7.59, 6.7, 6.7, 7.54, 7.73, 6.59, 6.31, 7.36, 7.59, 7.27, 7.27, 7.59, 7.59, 8.15, 8.37, 9.46, 8.73, 9.7, 10.0, 10.4, 10.55, 10.16, 10.8, 10.4, 10.88, 12.04, 11.21, 9.83, 8.49, 11.02, 15.18, 22.66, 20.6, -5.65, -7.4, -0.0, 2.05, -2.78, -19.59, -19.22, -12.96, -13.41, -13.86, -10.12, 10.12, 12.79, 13.28, 14.55, 14.55, 13.7, 10.75, 8.68, 7.76, 7.2, 7.6, 7.6, 6.94, 6.94, 6.94, 7.6, 7.87, 7.87, 8.24, 8.53, 8.53, 8.87, 9.17, 9.17, 9.48, 9.17, 9.48, 9.17, 9.48, 9.17, 9.17, 9.5, 9.5, 9.84, 10.19, 10.19, 10.79, 10.79, 10.53, 10.15, 10.62, 9.67, 10.41, 10.12, 10.56, 10.35, 10.55, 10.4, 10.75, 11.02, 10.73, 10.52, 9.55, 9.2, 8.38, 8.38, 8.38, 9.3, 9.09, 8.58, 8.58, 8.49, 8.15, 7.81, 8.15, 8.15, 7.81, 7.81, 9.09, 9.09, 9.32, 9.2, 11.09, 10.62, 10.62, 10.38, 11.03, 10.91, 10.2, 11.46, 12.27, 11.21, 8.55, 7.9, 12.39, 18.05, 28.66, -8.8, -10.47, -5.75, -2.72, -0.0, -6.81, -17.64, -15.49, -14.03, -13.99, -6.8, 7.0, 13.99, 14.3, 13.86, 13.86, 14.3, 10.43, 7.82, 7.54, 7.76, 7.2, 7.2, 6.94, 6.94, 7.22, 7.6, 7.6, 7.87, 8.24, 8.24, 8.24, 9.17, 9.17, 9.17, 9.17, 9.17, 9.17, 8.85, 9.15, 8.84, 9.17, 9.5, 9.5, 9.5, 9.84, 9.84, 10.09, 10.41, 10.19, 10.53, 10.28, 10.62, 9.08, 8.97, 9.42, 9.89, 10.04, 10.4, 10.88, 10.75, 11.18, 10.73, 10.14, 10.18, 9.6, 8.93, 9.3, 9.32, 9.32, 9.2, 9.6, 8.73, 8.37, 8.37, 9.09, 8.73, 8.37, 9.1, 9.1, 9.1, 9.2, 10.05, 10.18, 10.18, 11.18, 10.05, 10.6, 10.84, 10.65, 10.2, 11.4, 12.04, 10.24, 9.48, 10.88, 16.01, 28.16, 22.99, -10.43, -10.79, -10.73, -6.4, -3.9, -9.42, -16.54, -15.36, -13.23, -4.01, 0.0, 9.12, 14.03, 13.41, 12.79, 13.41, 9.8, 2.81, 4.52, 6.8, 5.34, 5.34, 6.94, 6.94, 7.22, 7.6, 7.6, 7.6, 8.24, 8.24, 8.24, 8.87, 8.87, 8.87, 8.87, 8.87, 8.85, 8.82, 8.82, 8.84, 8.84, 9.5, 9.5, 9.5, 9.84, 9.84, 10.09, 10.09, 10.41, 10.41, 10.73, 10.48, 10.04, 9.08, 8.69, 9.02, 10.04, 10.16, 10.4, 11.18, 11.06, 10.73, 10.58, 9.75, 9.6, 8.93, 9.32, 9.63, 9.63, 9.63, 9.32, 9.32, 8.73, 9.09, 8.73, 8.37, 8.37, 8.72, 8.72, 8.34, 9.2, 9.6, 11.87, 10.6, 10.0, 10.6, 9.63, 10.41, 10.41, 10.62, 11.4, 11.62, 11.2, 11.2, 11.87, 15.12, 23.6, 25.31, 15.62, -13.99, -13.86, -13.88, -11.38, -7.4, -11.7, -16.99, -14.79, -5.98, 0.0, 7.82, 13.57, 13.41, 12.52, 12.52, 8.85, -0.0, -0.0, 4.05, 5.34, 5.34, 6.7, 6.7, 7.22, 7.22, 7.6, 7.6, 7.96, 7.96, 8.24, 8.87, 8.87, 8.87, 8.56, 8.56, 8.85, 8.82, 8.82, 8.84, 8.84, 9.16, 9.5, 9.5, 9.84, 10.09, 10.09, 10.09, 10.09, 10.41, 10.41, 10.73, 10.8, 10.04, 9.52, 9.17, 8.75, 9.3, 10.4, 10.68, 11.06, 11.18, 10.73, 9.75, 9.45, 10.05, 9.63, 9.97, 9.54, 9.63, 9.45, 9.32, 9.32, 9.09, 8.73, 8.37, 9.1, 8.72, 8.34, 8.8, 8.99, 9.75, 9.33, 10.4, 9.6, 10.6, 10.6, 10.6, 10.32, 10.84, 10.84, 11.71, 11.72, 13.15, 14.11, 15.34, 19.35, 20.7, 20.07, 18.33, -16.12, -17.88, -17.43, -12.01, -4.95, -8.43, -15.65, -6.6, 0.0, 11.8, 13.41, 12.52, 12.52, 12.14, -0.0, -3.96, -2.54, -0.0, 4.05, 4.05, 6.96, 6.96, 6.96, 7.22, 7.6, 7.6, 7.96, 7.96, 8.24, 8.56, 8.56, 8.56, 8.56, 8.85, 8.53, 8.82, 8.82, 8.84, 8.84, 8.84, 9.16, 9.16, 9.84, 10.09, 10.09, 10.09, 10.09, 10.09, 10.41, 10.73, 11.04, 10.8, 10.55, 9.58, 9.3, 8.94, 9.48, 10.27, 10.75, 11.18, 10.73, 10.32, 9.63, 9.21, 9.54, 9.54, 9.21, 9.45, 9.45, 9.86, 9.32, 8.73, 8.37, 9.1, 8.72, 8.34, 8.6, 8.99, 8.99, 9.75, 9.75, 8.48, 10.18, 10.04, 10.04, 11.06, 9.97, 10.41, 11.09, 11.06, 12.71, 12.46, 15.49, 16.66, 19.14, 17.36, 17.43, 19.4, 21.46, -18.65, -18.65, -15.27, -7.19, -3.14, -3.25, -0.0, 12.96, 12.14, 12.27, 12.04, 12.04, 10.79, -0.0, -4.1, -3.04, -0.0, 2.28, 2.28, 6.96, 6.96, 6.96, 7.22, 7.6, 7.6, 7.6, 7.96, 8.24, 8.56, 8.56, 8.56, 8.85, 8.53, 8.53, 8.5, 8.82, 8.84, 8.84, 8.84, 9.16, 9.16, 9.42, 9.73, 9.73, 9.73, 9.73, 9.73, 10.04, 10.04, 10.35, 10.65, 10.8, 10.55, 9.81, 9.77, 9.48, 10.46, 10.84, 11.18, 10.73, 10.41, 9.63, 10.75, 8.79, 9.21, 9.63, 9.63, 9.45, 9.32, 8.73, 8.73, 8.72, 9.1, 8.6, 8.6, 8.6, 8.58, 9.13, 9.33, 9.33, 9.16, 10.14, 9.77, 10.47, 11.06, 9.76, 10.28, 10.73, 10.73, 11.51, 12.46, 15.43, 18.59, 20.92, 17.88, 13.77, 16.76, 22.35, -15.8, -16.79, -11.06, -8.05, -4.48, -0.0, 2.54, 6.0, 10.37, 11.6, 11.6, 10.37, 9.48, -0.0, -3.25, -3.14, -0.0, -0.0, -0.0, 6.96, 6.96, 6.96, 6.96, 7.6, 7.6, 7.6, 7.96, 8.24, 8.24, 8.56, 8.85, 8.53, 8.53, 8.24, 8.22, 8.22, 9.12, 9.12, 8.84, 8.84, 9.42, 9.42, 9.42, 9.73, 9.73, 9.73, 9.73, 9.73, 10.04, 10.04, 10.35, 10.65, 10.4, 10.55, 10.32, 10.38, 10.6, 10.91, 10.66, 10.73, 10.65, 9.97, 10.68, 8.99, 8.99, 9.63, 9.63, 8.93, 8.73, 8.72, 8.55, 8.99, 8.99, 8.6, 8.4, 8.72, 8.72, 8.99, 9.42, 9.42, 9.21, 10.58, 9.33, 9.77, 10.73, 10.73, 10.28, 10.73, 11.18, 11.06, 12.71, 14.55, 17.35, 24.04, 22.66, 13.56, 12.65, -13.91, -11.16, -12.01, -10.75, -9.49, -5.48, -0.0, 3.25, 8.31, 11.09, 10.73, 9.48, 9.48, 6.0, -0.0, -3.25, -3.25, -0.0, -0.0, -0.0, 6.96, 6.96, 6.96, 6.96, 6.96, 7.6, 7.6, 7.6, 8.24, 8.24, 8.24, 8.53, 8.53, 8.53, 8.22, 8.22, 8.22, 8.22, 9.12, 9.12, 9.12, 9.42, 9.42, 9.42, 9.42, 9.73, 9.73, 9.73, 9.73, 10.04, 9.82, 10.15, 10.15, 10.8, 10.68, 10.85, 10.6, 10.78, 11.0, 10.68, 10.73, 10.28, 10.22, 9.33, 10.88, 9.13, 10.18, 9.6, 8.72, 8.55, 8.18, 8.8, 8.4, 8.4, 8.72, 8.72, 8.3, 8.56, 8.99, 8.99, 9.64, 9.21, 7.56, 9.74, 10.28, 10.28, 9.83, 10.28, 10.65, 11.09, 11.06, 11.51, 13.86, 15.43, 18.91, 26.82, 10.8, -5.09, -14.3, -13.86, -7.44, -8.38, -8.38, -6.9, -0.0, 3.36, 8.58, 10.43, 8.58, 6.2, 5.15, 5.15, -0.0, -3.36, -3.25, -0.0, -0.0, -0.0, 6.96, 6.96, 6.96, 6.96, 6.96, 7.33, 7.33, 7.61, 7.95, 7.95, 8.24, 8.24, 8.53, 8.24, 8.22, 8.22, 8.22, 8.22, 8.78, 8.78, 9.12, 9.12, 9.42, 9.42, 9.42, 9.66, 9.95, 9.73, 9.73, 10.04, 9.82, 9.46, 9.78, 10.09, 10.4, 10.68, 10.85, 10.89, 11.02, 10.68, 10.73, 10.28, 10.22, 10.22, 9.64, 10.91, 9.55, 9.2, 8.8, 8.8, 8.4, 8.55, 8.82, 8.4, 8.4, 8.63, 8.19, 8.63, 8.8, 9.24, 9.21, 9.34, 10.58, 9.83, 9.74, 10.18, 9.83, 10.73, 10.2, 10.84, 11.53, 11.62, 12.96, 13.86, 15.34, 19.95, 0.0, -22.69, -13.15, -12.96, -4.66, -7.59, -8.66, -8.05, -3.25, 3.36, 8.58, 7.59, 5.48, 2.81, 2.35, 2.35, -0.0, -0.0, -3.25, -0.0, -0.0, -0.0, 6.96, 6.96, 6.96, 6.96, 6.96, 7.61, 7.61, 7.61, 7.61, 8.24, 8.24, 8.24, 8.24, 8.22, 8.22, 8.22, 8.22, 8.22, 8.5, 8.78, 8.78, 8.78, 8.78, 9.42, 9.66, 9.66, 9.42, 9.73, 9.73, 10.04, 9.46, 9.46, 9.78, 10.09, 10.4, 10.68, 10.85, 11.11, 10.84, 11.02, 10.68, 10.73, 10.28, 10.28, 10.68, 10.68, 9.92, 9.24, 8.82, 8.82, 8.82, 8.4, 8.63, 8.63, 8.19, 8.19, 7.92, 8.36, 8.8, 8.8, 9.35, 8.9, 8.45, 9.83, 9.74, 9.74, 10.14, 10.14, 9.97, 10.91, 11.55, 11.18, 12.96, 12.52, 14.75, 14.94, 20.34, 28.39, 23.43, 13.91, 9.66, -0.0, -6.64, -9.39, -3.25, -0.0, 5.15, 7.36, 5.48, 2.81, -0.0, -0.0, -0.0, -0.0, -0.0, -0.0, -0.0, -0.0, 6.97, 6.97, 6.97, 6.97, 6.97, 7.61, 7.61, 7.33, 7.61, 7.93, 7.93, 7.93, 7.93, 8.22, 8.22, 8.22, 8.22, 8.22, 8.22, 8.78, 8.78, 8.78, 9.02, 9.02, 9.3, 9.3, 9.08, 9.37, 9.37, 9.67, 9.67, 9.78, 9.78, 10.09, 10.4, 10.55, 10.85, 11.11, 11.33, 11.02, 11.14, 10.73, 10.73, 10.73, 10.73, 11.13, 10.56, 9.7, 9.06, 8.63, 8.63, 8.63, 8.67, 8.67, 8.36, 8.36, 7.92, 7.92, 8.46, 8.9, 8.9, 8.9, 8.94, 10.73, 9.74, 9.74, 9.89, 10.58, 9.97, 10.91, 11.18, 10.73, 11.53, 12.86, 13.41, 14.75, 16.34, 21.19, 26.96, 21.81, 18.33, 13.14, -0.0, -11.0, -6.6, -0.0, 3.47, 6.4, 3.47, -0.0, -0.0, -0.0, -0.0, -0.0, -0.0, -0.0, -0.0, -0.0, 6.97, 6.97, 6.97, 6.97, 6.97, 7.33, 7.61, 7.61, 7.61, 7.93, 7.93, 7.93, 8.22, 8.22, 8.5, 8.22, 8.22, 8.22, 8.22, 8.78, 8.78, 8.78, 9.02, 9.02, 9.3, 9.3, 9.08, 9.37, 9.37, 9.67, 9.67, 9.78, 9.78, 10.09, 10.4, 10.55, 10.85, 11.11, 11.33, 11.05, 11.14, 10.69, 10.73, 10.73, 10.73, 10.73, 10.69, 10.25, 9.7, 9.7, 9.26, 9.26, 8.82, 8.82, 8.82, 8.36, 8.46, 8.01, 8.01, 8.46, 8.46, 8.94, 8.94, 8.49, 10.73, 9.74, 9.74, 9.16, 10.04, 10.66, 11.62, 10.2, 11.09, 12.42, 13.41, 14.22, 15.27, 17.02, 20.39, 23.59, 25.01, 23.28, -0.0, -13.28, -12.01, -4.81, -0.0, 4.66, -0.0, -0.0, -0.0, -0.0, -0.0, -0.0, -0.0, -0.0, -0.0, -0.0, 6.97, 6.97, 6.97, 6.97, 6.97, 7.61, 7.61, 7.61, 7.61, 7.93, 7.93, 7.93, 8.22, 8.22, 8.5, 8.5, 8.5, 8.22, 8.22, 8.5, 8.78, 8.78, 9.02, 9.02, 9.3, 9.3, 9.08, 9.37, 9.37, 9.67, 9.67, 9.78, 10.09, 10.09, 10.4, 10.68, 10.95, 11.11, 11.11, 11.33, 11.05, 11.14, 11.18, 10.73, 10.73, 10.73, 10.69, 10.25, 10.25, 9.8, 9.7, 9.26, 9.26, 8.82, 8.91, 8.46, 8.46, 8.01, 8.05, 8.05, 8.49, 8.49, 8.94, 9.39, 8.94, 10.28, 9.83, 8.94, 9.83, 10.28, 10.28, 10.65, 11.53, 12.52, 13.41, 13.77, 14.84, 15.78, 17.13, 17.85, 22.79, 28.35, -0.0, -20.39, -14.22, -7.4, -0.0, -0.0, -0.0, -0.0, -0.0, -0.0, -0.0, -0.0, -0.0, -0.0, -0.0, -0.0, 6.71, 6.71, 6.98, 7.26, 6.98, 7.61, 7.61, 7.61, 7.61, 7.61, 7.93, 7.93, 8.22, 8.22, 8.22, 8.5, 8.5, 8.5, 8.22, 8.78, 8.78, 8.78, 9.02, 9.3, 9.3, 9.3, 9.37, 9.37, 9.67, 9.67, 9.97, 9.97, 10.09, 10.09, 10.4, 10.68, 10.95, 11.18, 11.11, 10.89, 11.05, 11.14, 11.14, 11.18, 10.73, 10.73, 10.73, 10.25, 10.25, 10.25, 9.8, 9.36, 9.36, 8.91, 8.46, 8.46, 8.49, 8.05, 8.05, 8.05, 8.05, 8.49, 8.49, 8.94, 8.94, 9.83, 9.39, 9.39, 9.83, 9.77, 10.22, 11.11, 11.62, 12.52, 12.96, 13.33, 14.22, 15.12, 15.78, 15.84, 17.64, 23.83, 29.06, -26.37, -22.55, -12.96, -7.0, -6.6, -6.2, -0.0, -0.0, -0.0, -0.0, -0.0, -0.0, -0.0, -0.0, -0.0, 6.98, 6.98, 6.98, 6.98, 7.32, 7.32, 7.61, 7.61, 7.61, 7.61, 7.93, 8.22, 8.22, 8.22, 8.22, 8.5, 8.5, 8.78, 8.78, 8.45, 8.45, 8.78, 9.3, 9.3, 9.3, 9.58, 9.58, 9.67, 9.67, 9.67, 9.97, 9.97, 10.09, 10.09, 10.4, 10.68, 10.95, 10.52, 10.75, 10.89, 11.05, 11.05, 11.14, 11.18, 11.18, 10.73, 10.73, 10.28, 10.28, 10.25, 9.8, 9.8, 9.36, 8.94, 8.94, 8.49, 8.49, 8.05, 8.05, 8.05, 7.6, 8.05, 8.49, 8.94, 8.94, 10.28, 9.83, 9.39, 9.83, 9.83, 10.28, 10.73, 11.62, 12.07, 12.52, 13.41, 13.86, 14.23, 14.47, 14.99, 15.36, 19.34, 0.0, -27.78, -26.46, -16.37, -6.8, -4.1, -7.19, -6.94, -0.0, -0.0, -0.0, -0.0, -0.0, -0.0, -0.0, -0.0, 6.98, 6.98, 6.98, 7.32, 7.32, 7.32, 7.61, 7.61, 7.61, 7.61, 8.22, 8.22, 8.22, 8.22, 8.22, 8.5, 8.5, 8.78, 8.45, 8.45, 8.45, 8.73, 8.73, 8.94, 9.21, 9.21, 9.21, 9.67, 9.67, 9.97, 9.97, 9.97, 10.26, 10.09, 10.4, 10.68, 10.52, 10.52, 10.75, 10.93, 10.89, 11.05, 11.14, 11.14, 11.18, 11.18, 10.73, 10.73, 10.28, 10.28, 9.83, 9.83, 9.39, 8.94, 8.94, 8.49, 8.49, 8.05, 8.05, 8.05, 8.05, 7.57, 8.01, 8.46, 8.46, 8.89, 8.94, 9.39, 9.39, 9.83, 9.79, 10.23, 11.18, 12.07, 12.52, 12.96, 13.41, 13.33, 13.96, 13.99, 14.3, 16.05, 20.12, -24.29, -27.44, -19.51, -3.39, -3.25, -3.68, -6.94, -6.7, -0.0, -0.0, -0.0, -0.0, -0.0, -0.0, -0.0, 6.98, 6.98, 7.32, 7.32, 7.32, 7.32, 7.61, 7.61, 7.61, 7.61, 8.22, 8.22, 8.22, 8.22, 8.22, 8.22, 8.78, 8.78, 8.45, 8.45, 8.45, 8.73, 8.73, 9.01, 9.21, 9.21, 9.48, 9.3, 9.3, 9.58, 9.97, 10.26, 10.26, 10.0, 10.0, 10.27, 10.52, 10.52, 10.75, 10.75, 10.93, 11.05, 11.05, 11.14, 11.18, 11.18, 10.73, 10.73, 10.28, 10.28, 10.28, 9.83, 9.39, 8.94, 8.94, 8.49, 8.49, 8.05, 8.05, 8.05, 8.02, 7.57, 7.57, 8.01, 7.92, 8.89, 8.94, 9.39, 9.39, 9.79, 9.64, 9.64, 9.33, 11.11, 12.0, 12.52, 12.96, 12.58, 13.44, 13.99, 13.99, 14.4, 15.65, -13.28, -24.39, -13.28, -6.4, -2.6, -2.6, -2.71, -6.45, -3.68, -0.0, -0.0, -0.0, -0.0, -0.0, -0.0, 6.98, 6.98, 7.32, 7.32, 7.32, 7.32, 7.32, 7.32, 7.32, 7.6, 7.6, 7.9, 7.9, 7.9, 7.9, 8.19, 8.45, 8.45, 8.45, 8.45, 8.73, 8.73, 8.73, 9.01, 9.01, 9.3, 9.3, 9.3, 9.58, 9.58, 9.86, 9.86, 10.13, 10.13, 10.0, 10.27, 10.52, 10.52, 10.75, 10.75, 10.93, 11.05, 11.05, 11.14, 11.14, 11.18, 10.73, 10.73, 10.73, 10.28, 10.28, 9.83, 9.83, 8.94, 8.94, 8.49, 8.49, 8.02, 8.02, 8.02, 8.02, 7.57, 7.5, 7.5, 7.48, 7.04, 9.34, 9.34, 9.34, 9.79, 10.23, 10.04, 9.75, 8.8, 10.84, 11.53, 12.52, 12.86, 13.01, 13.44, 13.96, 13.96, 14.16, -0.0, -22.69, -16.45, -11.38, -5.4, -2.6, -0.0, -2.71, -2.71, -2.82, -2.19, -1.76, -1.62, -1.62, -1.62, 6.98, 6.98, 7.32, 7.32, 7.32, 7.32, 7.32, 7.6, 7.6, 7.6, 7.6, 7.9, 7.9, 7.9, 8.19, 8.19, 8.19, 8.45, 8.45, 8.73, 8.73, 8.73, 9.01, 9.01, 9.01, 9.3, 9.3, 9.58, 9.58, 9.58, 9.86, 9.86, 9.86, 10.13, 10.13, 10.27, 10.52, 10.52, 10.75, 10.75, 10.93, 10.89, 11.05, 11.05, 11.14, 11.14, 10.7, 10.7, 10.73, 10.28, 10.28, 9.83, 9.83, 8.94, 8.94, 8.46, 8.46, 8.46, 8.02, 8.02, 7.5, 7.5, 7.5, 7.5, 7.37, 7.33, 9.21, 9.34, 9.79, 9.39, 9.83, 10.23, 10.04, 9.63, 9.63, 10.84, 12.07, 12.52, 12.86, 12.86, 13.33, 13.77, 14.55, -24.39, -24.79, -15.74, -11.7, -7.19, -2.82, -2.49, -2.19, -2.19, -2.82, -2.28, -1.76, -1.69, -1.69, -1.69, 6.98, 6.98, 7.32, 7.32, 7.32, 7.6, 7.6, 7.6, 7.6, 7.6, 7.6, 7.9, 7.9, 8.19, 8.19, 8.19, 8.19, 8.73, 8.73, 8.73, 8.73, 8.38, 9.01, 9.01, 9.3, 9.3, 9.3, 9.58, 9.58, 9.58, 9.86, 9.86, 9.86, 10.13, 10.38, 10.38, 10.52, 10.52, 10.75, 10.75, 10.93, 10.93, 11.05, 11.05, 11.05, 11.15, 11.15, 10.7, 10.7, 10.25, 10.25, 9.81, 9.36, 8.91, 8.91, 8.46, 8.46, 8.46, 7.94, 7.94, 7.5, 7.5, 7.37, 7.37, 7.37, 7.21, 7.33, 7.5, 10.24, 10.28, 10.28, 10.28, 10.28, 10.28, 10.28, 10.62, 11.62, 12.07, 12.42, 12.42, 12.86, 13.44, -8.2, -26.11, -26.55, -17.43, -12.16, -9.17, -6.7, -5.2, -2.71, -2.71, -2.71, -2.19, -3.98, -3.25, -3.25, -3.25, 6.98, 6.98, 7.32, 7.32, 7.6, 7.6, 7.6, 7.6, 7.6, 7.6, 7.6, 7.6, 8.19, 8.19, 8.19, 8.19, 8.19, 8.49, 8.73, 8.73, 8.38, 8.65, 8.65, 9.01, 9.3, 9.3, 9.58, 9.58, 9.58, 10.0, 10.0, 10.0, 10.13, 10.38, 10.38, 10.38, 10.6, 10.6, 10.8, 10.75, 10.75, 10.93, 10.89, 11.05, 11.06, 11.06, 11.06, 10.7, 10.7, 10.7, 10.25, 10.25, 9.36, 9.36, 8.91, 8.47, 8.46, 8.38, 7.94, 7.94, 7.94, 7.37, 7.37, 7.37, 7.81, 7.63, 7.63, 7.81, 10.12, 10.68, 10.73, 10.73, 10.73, 10.28, 9.79, 9.79, 10.73, 11.62, 12.52, 12.42, 12.14, 12.33, 13.28, -23.67, -27.06, -16.96, -12.39, -8.58, -7.59, -7.9, -6.2, -5.2, -2.82, -4.15, -4.15, -3.11, -3.11, -3.11, 6.98, 6.98, 6.98, 7.32, 7.6, 7.6, 7.6, 7.6, 7.6, 7.6, 7.6, 7.9, 7.9, 7.86, 7.86, 7.86, 8.15, 8.15, 8.38, 8.38, 8.38, 8.65, 8.65, 8.93, 8.93, 8.93, 9.2, 9.58, 9.58, 9.86, 9.86, 10.13, 10.38, 10.38, 10.38, 10.38, 10.6, 10.6, 10.6, 10.75, 10.75, 10.93, 10.49, 10.49, 10.62, 10.62, 10.62, 10.62, 10.62, 10.62, 10.16, 10.16, 9.28, 9.28, 8.84, 8.84, 8.39, 8.39, 7.94, 7.94, 7.81, 7.81, 7.81, 7.81, 7.63, 7.63, 8.06, 8.06, 8.06, 10.56, 10.69, 10.69, 10.73, 10.28, 10.28, 10.28, 10.28, 11.18, 11.62, 11.98, 12.04, 11.64, 14.88, -0.0, -27.51, -23.64, -14.39, -9.97, -8.94, -7.9, -8.22, -5.2, -5.2, -5.2, -4.15, -3.82, -3.82, -3.82, 6.98, 6.98, 6.98, 7.32, 7.6, 7.6, 7.6, 7.6, 7.6, 7.9, 7.9, 7.59, 7.59, 7.86, 7.86, 7.86, 8.15, 8.15, 8.15, 8.38, 8.38, 8.65, 8.65, 8.93, 8.93, 8.93, 9.2, 9.2, 9.2, 9.47, 9.86, 10.13, 10.13, 9.96, 9.96, 9.96, 10.6, 10.6, 10.6, 10.8, 10.75, 10.32, 10.49, 10.49, 10.49, 10.49, 10.62, 10.62, 10.62, 10.62, 10.18, 9.72, 9.28, 9.28, 8.84, 8.84, 8.39, 8.39, 8.28, 7.84, 7.81, 7.81, 7.81, 7.63, 7.63, 8.06, 7.84, 7.84, 7.84, 9.92, 10.12, 10.56, 10.12, 9.79, 9.79, 9.79, 9.77, 10.28, 10.73, 11.62, 11.26, 12.03, 13.99, 11.53, -20.74, -26.65, -18.24, -14.11, -10.38, -8.94, -8.22, -6.97, -7.24, -6.97, -5.75, -5.75, -5.75, -5.75, 6.61, 6.61, 6.98, 6.98, 7.6, 7.6, 7.6, 7.6, 7.3, 7.59, 7.59, 7.59, 7.59, 7.59, 7.86, 7.86, 8.15, 8.15, 8.15, 8.15, 8.38, 8.65, 8.65, 8.93, 8.93, 8.93, 9.2, 9.2, 9.2, 9.47, 9.47, 9.72, 9.72, 9.72, 9.96, 9.96, 9.96, 10.6, 10.6, 10.6, 10.75, 10.32, 10.32, 10.49, 10.49, 10.49, 10.49, 10.49, 10.49, 10.49, 10.05, 9.72, 9.72, 9.28, 8.84, 8.84, 8.28, 8.28, 8.28, 8.28, 7.84, 7.81, 7.63, 8.06, 8.06, 8.06, 8.25, 8.25, 8.0, 9.55, 9.92, 9.92, 9.68, 9.34, 9.34, 9.34, 9.39, 9.39, 10.28, 11.28, 11.72, 12.56, 13.81, 13.61, -13.14, -26.65, -19.4, -15.43, -11.62, -10.79, -9.3, -9.3, -8.53, -7.24, -6.97, -5.98, -5.98, -5.98, 6.34, 6.34, 6.7, 6.7, 6.98, 7.3, 7.3, 7.3, 7.59, 7.59, 7.59, 7.59, 7.59, 7.59, 7.59, 7.86, 8.15, 8.15, 8.15, 8.15, 8.44, 8.65, 8.29, 8.29, 8.93, 8.93, 9.2, 9.2, 9.2, 9.47, 9.47, 9.47, 9.72, 9.72, 9.72, 9.96, 9.96, 9.96, 10.18, 10.1, 10.1, 10.32, 10.32, 10.32, 10.32, 10.49, 10.49, 10.49, 10.49, 10.49, 10.05, 9.58, 9.58, 9.15, 8.71, 8.71, 8.28, 8.28, 8.28, 8.28, 8.12, 8.12, 8.06, 8.06, 8.06, 7.93, 8.34, 8.25, 8.0, 8.12, 9.03, 11.02, 10.24, 9.35, 9.39, 9.39, 9.39, 9.79, 10.22, 11.53, 12.14, 13.01, 14.4, 14.79, -7.21, -27.44, -19.67, -16.09, -14.3, -13.23, -11.87, -11.21, -10.73, -10.37, -8.53, -7.54, -7.54, -7.54, 6.34, 6.34, 6.34, 6.7, 6.98, 6.98, 7.3, 7.3, 7.59, 7.59, 7.59, 7.59, 7.59, 7.59, 7.59, 7.88, 8.15, 8.15, 8.15, 8.44, 8.08, 8.08, 8.08, 8.55, 8.55, 8.55, 9.2, 9.2, 9.2, 9.2, 9.47, 9.47, 9.47, 9.72, 9.72, 9.72, 9.96, 9.96, 9.96, 10.1, 10.1, 10.1, 10.32, 10.32, 10.32, 10.32, 10.32, 10.32, 10.49, 10.49, 10.05, 9.58, 9.58, 9.15, 9.15, 8.71, 8.28, 8.28, 8.28, 8.12, 8.12, 8.12, 8.12, 8.06, 7.93, 7.93, 8.34, 8.34, 8.0, 8.12, 8.84, 10.84, 10.24, 10.73, 9.39, 9.83, 9.79, 9.83, 10.28, 10.73, 12.07, 12.86, 14.19, 14.38, 6.64, -27.72, -21.06, -15.93, -14.3, -13.86, -12.52, -12.39, -11.61, -11.2, -9.62, -7.73, -7.73, -7.73, 6.34, 6.34, 6.34, 6.34, 6.98, 6.98, 6.98, 7.3, 7.59, 7.59, 7.59, 7.59, 7.59, 7.88, 7.88, 8.15, 7.81, 7.81, 7.81, 8.08, 8.08, 8.08, 8.08, 8.37, 8.55, 8.55, 8.82, 9.2, 9.2, 9.2, 9.47, 9.47, 9.47, 9.47, 9.72, 9.72, 9.72, 9.96, 9.86, 9.86, 10.1, 10.1, 10.1, 10.1, 10.32, 10.32, 10.32, 10.32, 10.32, 10.05, 10.05, 9.62, 9.62, 9.15, 9.15, 8.71, 8.71, 8.12, 8.12, 8.12, 8.12, 8.12, 8.12, 7.93, 7.93, 7.93, 8.34, 8.34, 8.12, 8.0, 8.52, 8.84, 9.29, 11.62, 9.39, 9.83, 9.83, 9.83, 10.28, 10.66, 11.53, 12.96, 13.72, 13.56, 13.28, -17.7, -23.81, -18.05, -15.49, -14.75, -13.86, -13.28, -12.58, -10.87, -10.19, -8.85, -8.85, -8.85, 6.34, 6.34, 6.34, 6.34, 6.98, 6.98, 6.98, 7.3, 7.59, 7.59, 7.59, 7.59, 7.59, 7.88, 7.88, 8.15, 7.81, 7.81, 7.81, 8.08, 8.08, 8.08, 8.08, 8.37, 8.55, 8.55, 8.82, 9.2, 9.2, 9.2, 9.47, 9.47, 9.47, 9.47, 9.72, 9.72, 9.72, 9.96, 9.86, 9.86, 10.1, 10.1, 10.1, 10.1, 10.32, 10.32, 10.32, 10.32, 10.32, 10.05, 10.05, 9.62, 9.62, 9.15, 9.15, 8.71, 8.71, 8.12, 8.12, 8.12, 8.12, 8.12, 8.12, 7.93, 7.93, 7.93, 8.34, 8.34, 8.12, 8.0, 8.52, 8.84, 9.29, 11.62, 9.39, 9.83, 9.83, 9.83, 10.28, 10.66, 11.53, 12.52, 13.28, 13.15, 13.97, 15.71, -0.0, -21.01, -19.22, -16.09, -15.2, -14.16, -13.32, -11.64, -10.19, -9.16, -9.16, -9.16]}, {"header": {"dx": 0.06612293990616946, "dy": 0.0552356325346848, "nx": 98, "ny": 59, "la1": 35.046912555036876, "la2": 31.78801023549047, "lo1": -121.43107172385933, "lo2": -114.95102361305473, "refTime": "2026041521", "parameterCategory": 1, "parameterNumber": 3}, "data": [-12.27, -12.09, -11.88, -11.33, -11.06, -10.43, -10.07, -9.37, -8.58, -7.85, -7.11, -5.6, -4.97, -4.1, -2.16, -2.08, -1.16, -1.23, -4.32, -10.41, -12.96, -12.96, -11.62, -11.18, -11.18, -11.62, -11.21, -11.87, -11.45, -11.45, -12.35, -12.96, -12.52, -11.02, -9.75, -8.8, -8.15, -7.81, -7.21, -6.58, -5.72, -5.54, -5.2, -5.99, -4.55, -5.3, -4.42, -3.12, -2.04, -2.11, -1.1, -1.13, 0.0, 0.0, 1.2, 2.38, 3.52, 4.6, 5.85, 6.1, 6.6, 6.6, 7.16, 6.95, 6.73, 6.95, 6.95, 6.95, 7.38, 7.82, 6.54, 7.0, 6.16, 4.95, 5.81, 7.0, 2.89, 3.47, 0.0, 14.75, 14.3, 0.0, 0.0, 0.0, 0.0, 0.0, 2.37, 7.9, 10.75, 11.18, 12.52, 13.09, 13.15, 13.48, 12.9, 11.44, 9.76, 10.99, -12.27, -11.72, -11.52, -11.64, -11.06, -10.76, -10.12, -9.76, -8.94, -7.85, -7.19, -6.98, -5.8, -4.81, -4.55, -2.93, -2.1, -3.32, -3.82, -7.26, -13.01, -12.96, -12.96, -12.96, -10.73, -11.18, -11.4, -11.45, -11.45, -12.04, -14.16, -13.86, -12.52, -9.74, -7.74, -8.22, -7.2, -8.0, -8.15, -8.37, -8.85, -8.38, -8.3, -6.92, -6.64, -5.85, -4.66, -2.28, -2.28, -1.23, 0.0, 0.0, 0.0, 1.08, 2.15, 2.38, 3.52, 4.47, 4.81, 6.1, 5.04, 5.48, 5.81, 5.63, 5.63, 6.73, 6.95, 6.95, 7.38, 6.54, 6.72, 5.09, 4.42, 2.98, 3.69, 3.58, 3.58, 3.47, 0.0, 14.75, 14.3, 0.0, 0.0, 0.0, 0.0, 0.0, 2.37, 7.9, 10.75, 11.18, 12.52, 13.09, 13.15, 13.48, 12.9, 11.44, 9.76, 10.99, -12.27, -11.72, -11.72, -11.52, -10.99, -10.73, -10.12, -9.76, -9.08, -8.38, -7.54, -6.29, -6.21, -4.99, -3.97, -3.97, -3.06, -3.06, -3.82, -6.67, -9.97, -12.14, -12.52, -13.41, -13.86, -10.58, -10.58, -10.58, -11.06, -11.51, -14.6, -15.2, -14.3, -10.96, -8.17, -8.3, -7.6, -8.17, -8.99, -10.16, -9.53, -8.53, -7.82, -8.1, -7.68, -5.92, -3.41, -2.4, -1.34, 0.0, 0.0, 0.0, 1.26, 2.31, 3.09, 3.42, 3.42, 4.47, 4.66, 4.66, 5.04, 5.31, 5.63, 5.63, 6.73, 6.95, 5.99, 6.35, 6.35, 5.09, 4.62, 1.78, 0.0, 0.0, 0.0, 0.0, 4.81, 6.8, 14.3, 14.75, 14.3, 9.48, 5.8, 5.4, 5.2, 3.68, 5.0, 9.58, 11.09, 12.52, 14.3, 14.4, 13.99, 13.48, 11.44, 9.48, 9.84, 11.2, -12.27, -11.72, -11.72, -11.52, -11.29, -10.73, -10.44, -9.8, -9.08, -8.38, -7.73, -7.09, -6.72, -4.81, -4.81, -4.81, -4.81, -4.48, -3.97, -4.48, -7.15, -10.0, -11.18, -11.18, -11.91, -12.71, -10.14, -9.83, -9.83, -11.18, -12.07, -13.86, -15.65, -15.34, -11.62, -9.96, -9.75, -9.86, -9.66, -10.58, -10.56, -9.64, -8.67, -7.18, -5.6, -4.43, -3.65, -1.3, 0.0, 0.0, 1.13, 1.26, 2.43, 2.43, 3.32, 3.32, 3.32, 3.32, 3.58, 3.47, 3.88, 5.31, 5.81, 6.73, 6.73, 5.99, 6.35, 5.81, 6.47, 5.14, 3.24, 1.94, 0.0, -14.75, -14.3, 0.0, 6.6, 15.2, 13.59, 12.39, 13.41, 9.48, 9.17, 9.67, 10.0, 9.3, 10.35, 11.51, 11.18, 13.86, 15.11, 14.4, 13.15, 11.37, 9.76, 9.48, 10.55, 12.14, -12.54, -11.9, -11.72, -11.52, -11.52, -10.73, -10.11, -9.8, -9.15, -8.49, -7.46, -7.51, -6.92, -5.2, -5.0, -4.81, -5.57, -5.98, -5.57, -6.21, -7.19, -10.73, -11.4, -11.62, -10.73, -12.07, -12.52, -12.07, -11.18, -10.2, -10.65, -11.09, -11.28, -12.14, -13.28, -13.57, -14.42, -12.74, -10.18, -10.73, -11.38, -9.69, -8.23, -7.13, -6.2, -3.65, -2.56, 0.0, 0.0, 1.38, 2.43, 2.35, 2.35, 3.58, 3.32, 2.24, 2.24, 3.58, 3.58, 2.56, 4.11, 5.15, 5.63, 5.99, 5.99, 6.72, 6.9, 6.72, 7.44, 8.17, 6.91, 8.0, 0.0, -16.54, -15.65, 0.0, 13.15, 14.3, 9.8, 9.48, 12.96, 10.79, 10.8, 10.96, 10.75, 11.18, 11.71, 11.28, 13.31, 15.2, 14.19, 12.58, 11.2, 10.37, 9.17, 10.18, 11.6, 12.22, -12.54, -11.9, -11.72, -11.52, -11.52, -10.94, -10.39, -9.78, -9.15, -8.49, -7.85, -7.22, -6.92, -5.2, -4.15, -3.82, -4.62, -5.2, -5.75, -5.57, -6.45, -8.53, -12.45, -13.41, -12.52, -12.07, -12.07, -12.07, -12.96, -12.07, -9.54, -9.63, -9.2, -8.72, -10.24, -13.32, -13.41, -12.52, -10.73, -11.0, -11.62, -11.17, -8.05, -4.52, -3.1, 0.0, 0.0, 2.81, 4.11, 4.89, 3.65, 3.65, 3.36, 3.47, 2.43, 2.43, 2.43, 2.43, 2.64, 2.56, 4.38, 4.24, 5.99, 6.8, 8.53, 9.0, 9.24, 8.77, 6.9, 9.0, 10.87, 12.57, 10.17, 0.0, 18.33, 16.54, 13.01, 12.3, 12.3, 7.19, 11.45, 11.62, 11.02, 11.51, 11.53, 11.28, 11.71, 13.01, 14.31, 14.19, 12.86, 12.56, 11.37, 10.37, 9.76, 11.37, 12.66, 12.22, -12.54, -12.16, -11.72, -11.35, -11.16, -10.94, -10.06, -9.78, -9.17, -8.2, -7.85, -7.55, -6.67, -5.75, -5.4, -4.44, -4.62, -5.2, -5.75, -4.8, -4.8, -3.97, -3.92, -4.48, 0.0, -3.68, -8.22, -10.8, -12.52, -10.73, -11.02, -9.33, -7.87, -6.64, -7.9, -10.12, -0.0, -0.0, -8.22, -10.14, -12.52, -5.8, 0.0, 3.69, 5.81, 7.54, 7.82, 8.43, 7.13, 6.2, 5.02, 5.15, 3.76, 3.58, 2.35, 2.28, 1.3, 1.3, 1.3, 2.72, 2.91, 4.71, 6.8, 9.35, 10.76, 9.92, 9.42, 7.82, 6.35, 8.0, 10.2, 10.91, 12.01, 12.92, 16.12, 16.12, 13.03, 9.48, 13.41, 10.73, 9.3, 11.46, 12.07, 11.95, 11.95, 12.14, 13.32, 13.15, 13.75, 13.01, 13.01, 11.99, 10.73, 10.73, 11.37, 12.3, 12.22, 11.78, -12.54, -12.16, -11.99, -11.35, -11.16, -10.94, -10.35, -9.78, -9.17, -8.85, -8.22, -8.24, -7.14, -6.45, -6.4, -5.14, -5.0, -4.47, -4.13, -4.44, -3.67, -2.51, -1.0, 2.37, 6.5, 5.29, 4.6, 4.8, 0.0, -7.9, -11.02, -11.03, -9.58, -6.7, -4.54, 0.0, 9.97, 10.0, 5.6, -0.0, 11.18, 11.45, 11.2, 11.09, 11.52, 11.38, 10.3, 9.88, 7.59, 6.4, 4.65, 4.98, 3.65, 2.48, 1.15, 0.0, 0.0, 0.0, 0.0, 1.43, 1.5, 5.28, 9.73, 11.88, 12.11, 11.19, 8.74, 5.81, 4.66, 4.95, 7.04, 8.2, 12.57, 13.99, 13.59, 12.27, 10.12, 9.48, 12.58, 14.03, 11.09, 10.01, 11.84, 12.52, 12.52, 13.23, 12.72, 12.72, 12.3, 12.3, 11.92, 11.26, 10.18, 10.52, 11.99, 11.87, 11.78, 11.35, -12.16, -12.16, -11.99, -11.35, -11.16, -10.59, -10.59, -9.72, -9.13, -8.53, -8.22, -8.53, -9.5, -8.22, -6.86, -6.86, -6.86, -6.41, -5.75, -5.21, -4.4, -3.19, 0.0, 7.02, 9.16, 8.85, 6.64, 6.95, 3.82, 0.0, -5.7, -7.59, 4.8, 6.2, 4.4, 5.1, 8.58, 10.52, 11.4, 10.96, 11.87, 11.2, 10.73, 10.47, 11.17, 9.8, 10.3, 10.87, 9.23, 7.82, 5.18, 3.73, 2.4, 0.0, 0.0, -1.15, -1.25, -1.29, -1.38, 0.0, 2.06, 10.75, 12.65, 13.27, 12.11, 10.43, 7.21, 3.9, 1.34, 0.0, 0.0, 5.23, 9.92, 12.52, 10.43, 10.12, 9.8, 11.6, 13.15, 14.99, 14.3, 8.05, 7.93, 9.8, 11.87, 12.52, 12.58, 12.58, 12.27, 12.04, 11.12, 10.12, 10.55, 10.91, 11.99, 11.87, 11.03, 11.45, -12.16, -12.16, -11.99, -11.35, -11.16, -10.59, -10.59, -10.01, -9.46, -9.15, -9.17, -9.17, -7.58, -7.55, -7.72, -7.36, -8.41, -7.9, -7.9, -5.52, -2.6, 0.0, 8.22, 10.79, 10.38, 10.0, 8.8, 7.87, 6.44, 2.49, 5.95, 11.18, 9.64, 9.96, 9.08, 8.22, 7.59, 7.76, 10.4, 10.41, 9.66, 8.85, 7.85, 6.76, 7.44, 8.44, 8.73, 7.93, 8.05, 6.47, 5.04, 3.88, 1.3, 0.0, -2.28, -3.76, -4.74, -3.82, -2.6, 0.0, 10.43, 15.9, 16.02, 14.39, 12.03, 9.36, 5.26, 1.15, 0.0, -3.47, -2.43, 0.0, 5.09, 7.2, 0.0, 0.0, 11.99, 11.62, 12.07, 14.11, 14.42, 16.54, 4.01, -0.0, -0.0, -0.0, 9.8, 13.86, 13.41, 12.3, 11.6, 10.73, 11.2, 11.26, 11.6, 11.72, 11.72, 11.72, -12.16, -12.16, -11.99, -11.62, -11.16, -10.59, -10.59, -10.01, -9.76, -9.48, -9.17, -9.48, -8.85, -7.54, -7.36, -6.41, -7.24, -6.63, -4.55, 0.0, 6.4, 13.19, 13.59, 11.62, 12.58, 10.41, 9.97, 9.54, 8.18, 6.95, 8.23, 8.63, 9.04, 8.18, 6.95, 5.98, 7.26, 8.93, 8.75, 8.85, 7.96, 7.51, 6.16, 6.21, 8.22, 8.93, 8.53, 7.28, 5.27, 5.45, 5.48, 5.98, 4.62, 3.49, 0.0, -3.59, -9.92, -9.02, -6.95, 6.0, 17.3, 17.59, 15.54, 14.13, 11.38, 10.52, 6.9, 0.0, -5.99, -7.82, -9.8, -8.18, -5.09, -7.2, -10.75, 0.0, 10.4, 10.6, 13.88, 15.2, 14.11, 14.53, 16.09, -0.0, -3.9, -0.0, -0.0, -0.0, 0.0, 13.41, 12.52, 12.52, 12.27, 11.2, 10.48, 11.26, 11.26, 11.26, -12.16, -11.99, -11.62, -11.62, -11.16, -10.8, -10.59, -10.35, -10.09, -10.09, -9.8, -9.8, -9.15, -7.51, -5.89, -4.43, -2.82, -1.6, 0.0, 2.28, 4.52, 7.59, 10.12, 13.02, 13.01, 12.52, 12.07, 8.49, 10.41, 8.93, 8.94, 8.93, 8.24, 7.9, 6.58, 6.24, 7.06, 7.65, 7.14, 6.21, 5.6, 4.48, 4.08, 5.98, 8.58, 8.55, 9.66, 8.85, 7.78, 8.31, 10.12, 10.76, 14.26, 17.47, 15.99, 11.53, -12.07, -18.05, -12.07, 13.15, 17.88, 18.11, 16.54, 14.13, 13.01, 13.59, 13.72, 0.0, -20.12, -16.99, -14.47, -12.39, -13.19, -14.75, -12.96, 4.8, 9.67, 13.19, 13.02, 14.84, 15.27, 15.61, 16.99, 8.0, -0.0, -0.0, -5.51, -0.0, 6.6, 9.8, 8.85, 11.03, 11.62, 10.79, 11.2, 10.79, 10.79, 10.79, -11.62, -11.62, -11.62, -11.62, -11.16, -10.8, -10.59, -10.35, -10.35, -10.09, -9.48, -9.48, -9.15, -8.46, -6.8, -5.55, -3.0, -1.23, 0.0, 0.73, 0.89, 1.23, 1.89, 5.48, 10.12, 13.15, 13.41, 12.96, 12.07, 9.83, 8.94, 8.59, 8.24, 7.27, 7.27, 6.69, 6.77, 6.2, 5.43, 4.15, 3.34, 3.34, 3.92, 6.14, 9.2, 10.41, 10.4, 9.66, 10.37, 10.73, 10.19, 11.64, 13.88, 15.11, 16.76, 18.08, 14.22, -22.8, -8.93, 11.03, 16.09, 16.35, 16.54, 14.65, 16.39, 17.38, 20.63, 25.03, -20.46, -24.07, -22.35, -21.01, -14.3, -11.62, 6.95, 11.46, 14.75, 15.78, 13.39, 7.4, 14.39, 16.54, 16.09, 16.54, 16.99, 18.78, -0.0, 8.0, 11.38, 7.93, 3.36, 6.45, 10.6, 11.62, 11.2, 10.37, 10.37, 11.5, -11.62, -11.62, -11.62, -11.62, -11.16, -10.8, -10.59, -10.35, -10.35, -9.78, -9.48, -9.48, -9.15, -8.78, -8.05, -6.5, -4.77, -3.53, -2.4, -1.31, -0.75, 0.0, 0.0, 0.0, 2.35, 6.4, 9.8, 12.39, 13.41, 12.52, 10.18, 8.58, 7.9, 6.3, 6.95, 6.4, 5.9, 4.99, 3.82, 3.08, 2.1, 3.61, 6.44, 9.2, 9.54, 9.97, 8.91, 10.0, 10.4, 11.2, 10.73, 11.21, 11.84, 11.84, 12.27, 10.87, 12.52, 6.08, 19.19, 13.79, 13.86, 15.55, 16.05, 15.91, 15.54, 15.69, 16.91, 18.78, -15.17, -21.17, -22.48, -21.2, -16.39, 4.6, 11.06, 14.75, 16.44, 16.91, 16.99, 7.6, 5.37, 9.17, 11.06, 13.59, 14.53, 14.79, 16.96, 18.33, 17.43, 11.7, 3.47, 2.71, 7.9, 12.52, 8.85, 10.79, 10.79, 12.04, -11.62, -11.62, -11.62, -11.44, -11.16, -10.8, -10.59, -10.7, -10.35, -9.78, -9.78, -9.48, -9.15, -8.78, -8.46, -7.04, -6.25, -4.77, -3.68, -3.11, -2.09, -1.62, -1.02, 0.0, 0.0, 0.0, 2.28, 5.15, 7.44, 11.99, 11.2, 8.55, 7.9, 7.27, 7.27, 8.03, 7.59, 5.21, 4.4, 2.13, 3.61, 7.59, 8.8, 9.13, 9.64, 9.64, 9.64, 9.2, 9.6, 10.0, 10.4, 10.0, 9.6, 8.4, 8.8, 8.58, 6.97, 6.88, 11.93, 16.02, 12.91, 12.83, 13.15, 13.57, 14.18, 14.61, 15.9, 14.57, 8.93, -17.99, -20.36, -18.4, 6.5, 12.42, 13.41, 16.44, 16.54, 15.99, 15.19, 16.99, -0.0, -0.0, -4.95, -4.24, -0.0, 12.65, 13.59, 15.61, 16.09, 16.54, 12.01, 3.25, 3.68, 12.52, 13.41, 12.3, 12.71, 12.71, -11.5, -11.62, -11.44, -11.44, -11.16, -11.16, -10.94, -10.59, -10.06, -9.78, -9.78, -9.48, -9.15, -9.08, -8.46, -7.73, -6.76, -5.55, -4.98, -3.85, -2.76, -2.33, -1.83, -1.05, -1.23, 0.0, 0.0, 0.0, 1.9, 3.25, 7.44, 8.53, 7.27, 7.59, 8.82, 7.58, 7.27, 5.45, 4.8, 5.29, 7.33, 8.63, 9.75, 9.33, 9.64, 9.21, 9.13, 9.55, 9.2, 8.23, 8.94, 9.3, 9.3, 8.58, 6.64, 4.4, 4.6, 5.98, 9.22, 13.02, 10.8, 9.97, 10.4, 9.66, 9.66, 10.37, 9.96, 9.49, 8.28, -4.77, -21.46, -0.0, 18.05, 18.78, 15.12, 17.56, 17.57, 15.92, 14.91, 16.39, -0.0, -8.2, -7.6, -3.58, -0.0, -0.0, 13.41, 12.96, 12.96, 13.86, 15.65, 5.8, 11.6, 13.41, 12.52, 12.07, 12.52, 12.52, -11.5, -11.44, -11.44, -11.44, -11.16, -11.16, -10.94, -10.94, -10.06, -9.78, -9.78, -9.48, -9.46, -9.46, -8.46, -8.05, -7.04, -6.3, -5.55, -4.64, -3.59, -2.33, -1.66, -0.92, 0.0, -1.02, -1.13, -1.23, -1.63, 0.0, 3.25, 10.37, 9.58, 10.0, 8.22, 8.4, 8.54, 8.58, 8.23, 8.8, 9.64, 8.67, 9.75, 8.6, 9.33, 9.13, 8.82, 8.82, 7.27, 8.23, 8.23, 8.58, 8.94, 7.59, 6.44, 6.17, 5.29, 5.52, 7.54, 9.17, 8.85, 6.71, 7.59, 5.95, 5.95, 5.29, 6.97, 6.97, 5.15, 0.0, -9.8, 18.33, 17.88, 20.92, 17.13, 16.41, 15.38, 15.74, 16.01, 15.62, 14.88, 0.0, -0.0, 8.43, 11.9, 10.4, 10.8, 12.71, 13.41, 13.59, 14.31, 13.41, 12.52, 12.96, 12.96, 11.91, 12.35, 12.35, -11.34, -11.44, -11.44, -11.44, -11.16, -11.16, -10.94, -10.94, -10.39, -10.39, -9.78, -9.8, -9.8, -9.46, -8.46, -7.78, -7.73, -6.99, -5.8, -4.7, -3.47, -3.07, -2.47, -0.89, -0.96, -2.02, -4.47, -5.19, -5.34, -3.69, 8.18, 10.73, 10.73, 9.58, 9.6, 9.75, 9.7, 9.97, 8.8, 9.64, 9.64, 9.64, 9.13, 9.55, 8.82, 8.03, 8.38, 6.42, 6.42, 7.27, 8.23, 8.23, 8.23, 7.27, 6.17, 6.17, 5.29, 5.52, 5.75, 5.75, 6.21, 4.32, 4.8, 2.6, 2.6, 1.93, 1.54, 2.02, 2.37, 3.07, 10.35, 16.37, 17.27, 18.4, 14.51, 12.78, 14.3, 15.02, 16.68, 16.79, 14.51, 13.96, 16.96, 13.41, 12.52, 12.52, 12.79, 11.12, 13.15, 14.3, 12.79, 12.58, 11.62, 12.07, 12.83, 12.46, 11.87, 11.87, -11.34, -11.44, -11.44, -11.44, -11.44, -11.16, -10.94, -10.94, -10.39, -10.39, -10.11, -10.11, -9.8, -9.46, -9.15, -8.95, -7.51, -7.34, -5.92, -4.6, -4.46, -4.91, -4.38, -3.53, -2.72, -4.38, -8.1, -7.13, -4.24, 0.0, 13.15, 11.6, 10.01, 9.66, 8.94, 10.52, 10.08, 10.52, 10.38, 10.41, 9.33, 9.75, 10.0, 9.58, 9.08, 7.59, 6.7, 4.6, 5.29, 7.27, 8.23, 8.23, 8.23, 8.23, 7.27, 7.27, 5.29, 6.98, 6.21, 3.68, 3.68, 2.28, 2.19, 1.62, 0.0, 0.0, 0.0, 0.0, 1.33, 3.93, 8.0, 11.16, 12.89, 13.2, 7.6, 8.29, 11.38, 14.03, 15.19, 15.59, 15.19, 15.59, 15.07, 12.22, 13.01, 13.31, 13.41, 12.79, 12.45, 13.41, 14.11, 13.23, 12.07, 11.62, 13.32, 13.15, 12.39, 12.39, -11.34, -11.44, -11.44, -11.44, -11.44, -11.16, -10.94, -10.94, -10.65, -10.39, -10.11, -10.11, -9.8, -9.8, -9.13, -8.17, -7.82, -7.85, -7.36, -6.72, -6.57, -7.15, -8.22, -7.95, -6.3, -5.8, -7.19, 0.0, 13.86, 12.96, 12.14, 11.2, 8.53, 8.53, 8.22, 9.6, 9.6, 9.6, 9.96, 9.55, 9.6, 8.93, 8.59, 8.49, 7.9, 7.26, 4.6, 4.6, 7.27, 7.87, 9.13, 8.82, 9.2, 9.58, 7.56, 6.95, 6.98, 6.98, 4.8, 3.68, 1.84, 0.0, 0.0, 0.0, 0.0, 0.0, 0.0, 0.0, 1.5, 3.85, 5.23, 5.4, 4.73, 3.73, 1.9, 2.05, 8.28, 14.39, 14.79, 15.19, 13.99, 14.36, 14.23, 13.01, 13.44, 13.01, 13.01, 12.46, 12.04, 11.87, 13.23, 13.41, 12.96, 12.96, 13.32, 13.59, 13.19, 13.19, -11.34, -11.44, -11.44, -11.44, -11.44, -10.94, -10.94, -10.94, -10.99, -10.73, -10.73, -9.8, -9.8, -9.8, -9.48, -8.83, -8.17, -8.15, -7.8, -8.21, -8.66, -10.17, -11.58, -10.22, -8.18, -5.31, 0.0, 4.1, 10.04, 10.4, 10.4, 8.22, 8.22, 6.97, 8.22, 7.9, 9.3, 9.6, 9.6, 9.58, 8.73, 9.3, 8.59, 9.16, 8.75, 7.54, 5.06, 5.29, 8.23, 9.55, 9.13, 9.55, 9.2, 9.58, 8.38, 7.27, 7.27, 6.71, 4.58, 1.84, 0.0, 0.0, 0.0, 0.0, 0.0, 0.0, 0.0, 1.98, 3.14, 4.38, 3.79, 2.59, 0.0, -6.07, -6.91, -3.42, 17.35, 17.64, 15.9, 14.23, 13.99, 13.99, 13.81, 12.56, 12.98, 12.56, 12.56, 12.72, 13.09, 11.61, 11.87, 12.72, 14.11, 13.41, 13.67, 13.19, 12.27, 12.27, -11.34, -11.44, -11.44, -11.44, -10.94, -10.94, -10.94, -11.29, -10.99, -10.73, -10.73, -10.12, -9.8, -9.48, -9.48, -9.48, -8.46, -8.38, -9.02, -9.11, -7.73, -8.78, -10.94, -10.73, -9.62, -6.4, -2.35, 0.0, 1.71, 5.4, 5.4, 8.22, 5.2, 5.2, 5.2, 7.9, 8.22, 9.3, 8.94, 9.58, 9.3, 9.3, 9.09, 9.82, 8.94, 7.59, 6.7, 6.95, 9.55, 10.14, 9.75, 10.18, 9.2, 8.73, 8.38, 8.73, 8.82, 7.51, 5.2, 1.76, 0.0, -2.95, -3.53, -2.19, 0.0, 0.0, 2.28, 3.82, 4.1, 5.48, 6.16, 7.92, 0.0, -24.14, -9.83, 0.0, 16.12, 18.41, 17.88, 15.97, 15.18, 15.49, 15.61, 14.84, 13.57, 12.72, 12.72, 13.57, 14.13, 12.07, 11.95, 11.99, 13.28, 14.03, 14.3, 14.03, 13.7, 13.7, -11.34, -11.34, -11.34, -11.23, -10.94, -10.94, -10.94, -11.29, -10.99, -10.73, -10.73, -10.42, -10.12, -9.8, -9.48, -9.48, -9.13, -9.08, -8.94, -9.49, -7.23, -5.62, -6.94, -9.76, -9.48, -7.44, -5.33, -2.48, -1.43, 0.0, 2.37, 2.82, 5.2, 2.82, 5.2, 5.2, 8.22, 9.3, 9.97, 9.97, 9.67, 10.09, 9.46, 9.86, 9.3, 8.94, 7.59, 8.72, 9.26, 10.14, 9.75, 9.6, 9.2, 8.73, 9.2, 8.38, 8.49, 9.17, 7.19, 2.28, -1.33, -4.6, -8.22, -5.2, 0.0, 3.53, 5.2, 4.15, 5.2, 4.93, 4.38, 10.73, -3.73, -7.69, -3.6, -0.0, 8.85, 13.03, 16.12, 16.41, 13.86, 15.53, 15.55, 15.27, 13.99, 13.15, 13.15, 13.57, 14.56, 13.89, 12.86, 13.41, 12.79, 12.79, 14.3, 14.3, 14.11, 14.11, -11.34, -11.34, -11.34, -11.44, -10.94, -10.94, -10.94, -11.29, -11.29, -10.73, -10.73, -10.42, -10.12, -10.12, -9.48, -9.8, -9.76, -9.37, -9.37, -8.94, -8.1, -6.0, -5.25, -6.44, -8.54, -8.23, -6.42, -4.74, -3.85, -1.61, 0.0, 0.0, 2.28, 2.19, 2.71, 5.0, 6.71, 7.9, 9.3, 9.97, 9.67, 10.09, 9.46, 9.86, 9.46, 9.09, 11.2, 10.38, 10.58, 11.02, 11.03, 10.0, 9.2, 9.2, 8.82, 8.03, 8.37, 9.16, 8.1, 5.98, 1.75, -2.28, -6.2, 0.0, 7.9, 10.8, 9.42, 8.85, 5.75, 3.07, 2.71, 20.56, -0.0, -8.91, -5.23, 4.24, 9.48, 10.37, 13.19, 13.97, 13.75, 14.3, 14.75, 13.96, 13.99, 13.99, 13.99, 13.99, 13.89, 14.07, 12.39, 11.99, 13.86, 13.59, 14.3, 14.3, 13.86, 13.86, -11.34, -11.34, -11.34, -11.07, -11.23, -10.94, -10.94, -10.94, -11.29, -10.99, -10.73, -10.42, -10.42, -10.12, -10.12, -10.12, -10.12, -9.46, -9.08, -9.08, -8.31, -7.34, -6.0, -5.43, -6.21, -6.67, -6.9, -6.0, -4.98, -4.71, -1.83, 0.0, 0.0, 0.0, 2.19, 2.6, 5.0, 6.71, 8.94, 9.97, 9.67, 10.09, 9.09, 8.49, 8.49, 7.59, 9.97, 10.18, 9.54, 9.6, 10.28, 11.2, 9.2, 9.6, 9.2, 8.03, 8.03, 7.56, 8.22, 8.85, 6.71, 3.49, 5.46, 9.6, 11.46, 11.61, 10.48, 8.53, 6.7, 1.64, 0.0, 1.94, 0.0, -12.39, -8.76, -0.0, 7.04, 9.77, 11.44, 11.16, 12.98, 13.75, 13.41, 13.33, 14.31, 14.31, 13.99, 13.48, 13.29, 12.35, 13.59, 11.33, 12.79, 14.75, 13.41, 13.75, 13.72, 13.72, -11.34, -11.34, -11.34, -10.87, -11.23, -10.94, -10.94, -10.94, -10.65, -10.73, -10.73, -10.42, -10.42, -10.12, -10.12, -9.8, -9.8, -9.46, -9.08, -9.08, -8.66, -7.85, -7.34, -6.31, -5.62, -6.21, -5.8, -5.8, -5.27, -5.8, -5.11, -2.13, 0.0, 0.0, 0.0, 0.0, 2.6, 4.8, 7.9, 9.58, 9.3, 9.67, 9.09, 8.49, 6.98, 5.95, 6.45, 8.55, 9.74, 9.6, 10.96, 10.6, 11.87, 10.8, 10.0, 8.38, 7.27, 6.95, 7.27, 8.22, 7.54, 6.21, 5.21, 8.18, 10.27, 11.3, 10.19, 8.85, 5.11, 1.77, 0.0, 0.0, 0.0, -24.14, -14.03, -6.4, 2.18, 5.65, 6.76, 8.93, 11.16, 13.32, 15.2, 13.86, 14.22, 15.55, 14.42, 13.48, 11.8, 12.65, 14.4, 13.46, 13.97, 15.18, 13.77, 13.88, 12.98, 12.98, -11.16, -11.16, -11.16, -10.87, -10.87, -10.94, -10.94, -10.94, -10.39, -10.73, -10.73, -10.42, -10.42, -10.12, -10.12, -9.8, -9.8, -9.46, -9.46, -9.08, -8.66, -8.2, -7.93, -6.57, -6.31, -5.43, -4.99, -5.8, -5.27, -5.27, -4.55, -4.39, -3.44, -1.98, -1.98, 0.0, 0.0, 2.71, 6.44, 8.23, 9.58, 9.67, 9.46, 7.59, 5.98, 5.0, 2.71, 7.27, 9.74, 9.64, 10.52, 10.7, 9.75, 9.4, 9.7, 8.15, 8.38, 7.27, 7.21, 7.27, 6.21, 5.0, 5.0, 8.24, 11.2, 10.09, 9.82, 7.54, 5.11, 1.61, 0.0, 0.0, 0.0, 0.0, -6.36, -0.0, 3.05, 1.96, 3.11, 4.88, 7.44, 10.79, 13.75, 12.96, 13.86, 14.66, 14.65, 13.27, 12.89, 12.51, 12.89, 14.03, 16.02, 16.05, 14.84, 13.57, 12.79, 12.79, -10.79, -10.79, -11.16, -10.87, -10.87, -10.87, -10.94, -10.94, -10.7, -10.39, -10.73, -10.42, -10.12, -10.12, -10.12, -9.8, -9.8, -9.15, -9.48, -9.13, -8.73, -8.38, -7.93, -7.44, -6.9, -6.65, -5.43, -5.43, -5.18, -5.6, -6.08, -5.4, -4.75, -3.32, -3.82, -2.28, 0.0, 2.71, 5.0, 6.44, 7.9, 9.08, 9.09, 7.81, 6.95, 4.8, 0.0, 7.27, 9.76, 10.12, 10.78, 9.96, 9.8, 9.2, 9.1, 8.93, 7.9, 8.38, 8.37, 7.27, 5.92, 4.54, 5.0, 8.53, 9.86, 10.41, 8.73, 5.6, 2.93, 0.0, 0.0, 0.0, 0.0, 0.0, 1.89, 12.29, 23.69, 5.28, 3.01, 3.25, 5.0, 7.26, 11.5, 12.35, 12.52, 13.86, 14.31, 13.99, 13.99, 13.19, 12.81, 13.58, 15.49, 16.12, 15.69, 14.3, 13.89, 13.89, -10.79, -10.79, -10.79, -10.87, -10.87, -10.87, -10.59, -10.7, -10.7, -10.39, -10.39, -10.73, -10.12, -10.12, -10.44, -9.8, -9.48, -9.15, -9.48, -9.13, -9.13, -8.44, -7.67, -7.44, -6.9, -6.67, -6.43, -6.43, -5.6, -5.18, -5.4, -5.86, -5.4, -4.75, -3.19, -1.91, 0.0, 0.0, 2.71, 6.44, 7.9, 8.73, 9.3, 10.04, 10.48, 6.58, 3.49, 9.13, 10.12, 9.97, 10.5, 9.6, 8.99, 8.72, 8.15, 7.59, 8.53, 9.08, 7.59, 7.27, 5.92, 5.0, 6.4, 8.85, 9.08, 7.78, 8.31, 3.96, 0.0, -1.28, -3.01, -3.2, -1.53, -1.48, 1.77, 14.08, 21.25, 19.22, 9.66, 4.12, 4.24, 4.6, 7.51, 10.8, 12.71, 13.41, 13.28, 13.56, 13.2, 11.68, 11.33, 12.65, 12.73, 14.39, 15.19, 15.19, 15.11, 15.11, -10.79, -10.79, -10.79, -10.51, -10.87, -10.87, -10.35, -10.35, -10.7, -10.39, -10.39, -10.39, -10.12, -10.12, -10.12, -9.8, -9.48, -9.15, -9.17, -8.82, -8.82, -8.44, -8.01, -7.54, -7.54, -7.01, -7.01, -6.43, -5.93, -5.6, -5.18, -5.4, -5.86, -5.2, -4.58, -3.68, -1.91, 0.0, 2.19, 4.8, 6.44, 7.59, 8.73, 8.93, 9.09, 8.22, 8.73, 9.4, 9.66, 9.58, 9.3, 7.74, 8.23, 8.23, 8.15, 7.59, 6.95, 7.27, 7.44, 6.5, 4.8, 5.0, 6.4, 8.22, 7.24, 6.63, 7.11, 6.4, 1.58, -2.7, -4.23, -1.9, 0.0, 0.0, 2.72, 18.85, 19.67, 17.3, 18.33, 12.57, 5.1, 2.06, 2.28, 5.6, 9.67, 14.3, 13.59, 12.27, 10.43, 8.18, 8.18, 9.77, 11.06, 13.58, 14.39, 15.59, 15.93, 15.93, -10.41, -10.41, -10.79, -10.51, -10.51, -10.65, -10.35, -10.35, -10.35, -10.06, -10.39, -10.39, -10.11, -10.11, -9.8, -9.48, -8.85, -9.17, -8.82, -8.82, -8.44, -8.44, -8.01, -8.01, -7.54, -7.01, -7.01, -6.21, -6.56, -5.93, -6.31, -5.99, -6.21, -5.86, -5.2, -4.4, -3.53, 0.0, 0.0, 2.1, 3.98, 6.44, 7.59, 8.38, 8.38, 9.42, 9.27, 8.47, 8.12, 8.41, 7.59, 7.27, 7.27, 7.59, 7.59, 6.98, 5.98, 6.76, 6.24, 5.54, 5.0, 5.2, 5.86, 5.64, 5.4, 5.2, 4.08, 4.81, 4.48, 0.0, 0.0, 1.84, 3.79, 2.52, 4.12, 16.96, 14.79, 14.75, 16.41, 19.47, 9.8, -0.0, -0.0, -0.0, -0.0, 10.12, 10.12, 6.4, 5.31, 2.43, 2.43, 5.48, 10.75, 13.02, 13.58, 14.39, 15.19, 15.19, -10.41, -10.41, -10.41, -9.94, -10.3, -10.3, -10.01, -10.35, -10.35, -10.06, -9.78, -9.78, -10.11, -9.78, -9.48, -9.17, -8.85, -9.17, -8.52, -8.15, -8.15, -8.44, -8.01, -8.01, -7.19, -7.19, -6.77, -6.53, -7.43, -6.45, -6.94, -7.36, -6.72, -6.21, -5.86, -5.2, -3.07, -1.84, 0.0, 2.1, 3.82, 5.52, 6.7, 6.7, 6.7, 6.2, 6.5, 6.44, 6.44, 7.27, 6.98, 6.69, 6.98, 6.98, 6.69, 6.69, 6.5, 6.5, 5.32, 4.6, 4.75, 4.72, 4.72, 4.15, 3.68, 2.42, 1.28, 1.91, 2.45, 4.48, 5.7, 6.58, 6.2, 5.16, 4.78, 17.59, 8.38, 9.58, 13.59, 17.88, 17.02, 2.94, -2.21, -2.81, -4.66, -13.59, -13.99, -4.66, 0.0, 0.0, 0.0, 0.0, 10.43, 13.03, 13.2, 13.58, 14.39, 14.39, -10.41, -10.41, -10.23, -9.94, -9.94, -10.3, -10.01, -10.01, -10.01, -9.78, -9.78, -9.78, -9.78, -9.78, -9.17, -8.85, -8.54, -8.21, -8.52, -8.15, -8.15, -8.15, -7.73, -7.73, -7.4, -6.94, -7.28, -6.77, -6.33, -7.43, -7.26, -8.07, -7.54, -6.92, -6.7, -5.2, -4.08, -3.07, 0.0, 0.0, 1.69, 3.39, 4.8, 5.95, 6.2, 5.32, 5.32, 4.6, 4.8, 6.24, 5.98, 5.98, 6.5, 6.24, 5.98, 5.69, 5.69, 5.69, 4.6, 3.77, 3.39, 3.39, 3.19, 3.77, 3.53, 2.71, 1.33, 1.28, 2.28, 4.81, 6.4, 5.92, 4.08, 1.6, 0.0, 5.75, 10.43, 4.32, 8.05, 12.79, 15.61, 14.13, -0.0, -6.14, -9.92, -16.05, -16.09, -12.16, -2.81, 0.0, -2.13, 0.0, 9.8, 14.03, 13.57, 13.59, 14.23, 14.23, -10.41, -10.41, -10.23, -9.94, -9.94, -9.94, -10.01, -10.01, -10.01, -9.46, -9.46, -9.46, -9.46, -9.46, -8.85, -8.24, -8.24, -8.21, -8.21, -8.15, -8.15, -8.15, -7.73, -7.73, -7.4, -7.4, -6.94, -6.94, -6.44, -5.99, -5.86, -7.26, -7.72, -8.02, -6.7, -5.64, -5.2, -3.19, -1.58, 0.0, 1.76, 3.25, 4.8, 5.95, 5.32, 3.61, 3.61, 3.61, 5.32, 5.32, 6.24, 6.5, 6.24, 5.98, 5.98, 5.45, 5.45, 5.21, 4.6, 4.8, 3.96, 3.53, 5.0, 3.53, 3.61, 2.6, 2.6, 1.52, 2.28, 4.65, 5.6, 5.6, 3.96, 1.51, 2.15, 5.62, 10.41, 7.0, -0.0, 3.47, 11.38, 14.79, 11.7, -0.0, -7.4, -14.94, -16.09, -13.03, -4.52, 0.0, 0.0, 0.0, 8.85, 13.41, 13.41, 14.18, 14.23, 14.23, -10.04, -10.04, -10.23, -10.23, -9.94, -9.94, -9.66, -9.66, -9.42, -9.46, -9.46, -9.46, -9.13, -9.13, -8.85, -8.24, -8.24, -8.21, -8.21, -7.85, -8.15, -8.15, -7.73, -7.4, -7.4, -7.4, -7.4, -6.94, -6.94, -6.44, -5.4, -5.86, -6.67, -7.14, -7.65, -6.97, -5.2, -4.58, -1.58, 0.0, 0.0, 3.25, 4.05, 3.77, 3.61, 2.49, 2.39, 3.61, 4.05, 5.32, 5.32, 6.5, 6.24, 5.98, 5.69, 5.45, 5.21, 4.4, 3.99, 3.25, 3.11, 5.2, 4.8, 3.53, 3.53, 3.53, 2.95, 2.71, 2.71, 2.93, 4.39, 4.38, 2.35, 3.07, 3.52, 5.65, 4.46, 0.0, -5.37, -0.0, -0.0, 12.01, 14.84, 12.65, -0.0, -13.19, -14.75, -8.85, 0.0, 0.0, 0.0, 3.04, 12.52, 11.87, 12.71, 12.96, 14.18, 14.18, -9.86, -9.86, -9.86, -10.23, -9.94, -9.94, -9.66, -9.66, -9.42, -9.13, -9.13, -9.13, -9.13, -8.85, -8.53, -8.24, -8.24, -8.21, -8.21, -8.21, -7.85, -7.85, -7.73, -7.4, -7.4, -7.4, -7.4, -7.4, -6.94, -6.44, -5.89, -5.4, -4.87, -5.75, -6.2, -6.71, -5.92, -4.4, -3.07, 0.0, 0.0, 2.95, 3.61, 3.45, 2.39, 2.39, 3.45, 4.05, 4.05, 4.23, 5.32, 6.24, 5.98, 5.69, 5.45, 5.21, 4.78, 3.99, 3.99, 3.25, 3.25, 2.83, 3.39, 2.23, 2.23, 1.58, 2.49, 2.6, 1.39, 1.58, 2.54, 3.56, 2.21, 3.33, 1.74, 1.58, 0.0, -3.23, 0.0, 4.66, 4.66, 5.09, 10.79, 12.58, 13.01, 12.96, 0.0, 3.04, 2.45, 4.81, 4.81, 7.19, 12.96, 12.3, 12.14, 12.96, 13.67, 13.67, -9.86, -9.86, -9.86, -10.23, -9.94, -9.94, -9.94, -9.66, -9.42, -9.13, -9.13, -9.13, -8.85, -8.53, -8.53, -7.93, -8.24, -8.21, -8.21, -8.21, -7.85, -7.85, -7.54, -7.14, -7.14, -7.14, -7.14, -7.14, -6.7, -6.7, -6.21, -5.68, -5.4, -4.87, -5.35, -5.43, -5.92, -3.92, -2.71, 0.0, 0.0, 2.6, 3.61, 3.07, 3.3, 3.45, 3.61, 3.61, 4.05, 5.32, 6.24, 6.24, 5.45, 5.69, 4.78, 4.78, 4.78, 3.81, 3.65, 3.11, 3.11, 2.04, 1.69, 1.09, 2.33, 1.58, 1.22, 0.0, 0.0, 0.0, 1.64, 3.56, 2.57, 2.66, 1.9, 0.0, -1.53, -2.79, 0.0, 15.8, 8.4, 11.06, 10.73, 11.21, 12.07, 12.71, 11.99, 7.78, 5.8, 5.8, 7.78, 9.48, 13.41, 13.01, 12.58, 12.96, 13.41, 13.41, -9.86, -9.86, -9.86, -9.86, -9.94, -9.94, -9.94, -9.66, -9.42, -9.42, -9.13, -8.85, -8.53, -8.53, -8.82, -8.22, -8.22, -7.9, -7.9, -8.21, -8.21, -7.54, -7.54, -7.54, -7.14, -7.14, -7.14, -7.14, -7.14, -6.7, -6.7, -6.21, -5.68, -5.2, -4.87, -4.3, -4.15, -3.53, -2.42, -1.18, 0.0, 1.33, 2.49, 4.58, 3.99, 3.99, 3.61, 3.61, 5.1, 6.24, 5.45, 5.7, 4.99, 4.99, 4.78, 4.2, 3.49, 3.49, 2.7, 2.83, 2.83, 1.84, 1.76, 1.04, 1.09, 0.0, 0.0, 0.0, 0.0, 0.0, 1.58, 2.54, 2.43, 1.73, 2.19, -2.52, -5.81, -8.43, 13.91, 16.74, 12.01, 10.75, 11.87, 13.7, 13.86, 13.01, 11.09, 8.31, 8.05, 9.48, 9.48, 11.99, 13.41, 13.01, 13.01, 12.96, 13.41, 13.41, -9.86, -9.86, -9.86, -9.86, -9.86, -9.94, -9.94, -9.94, -9.42, -9.42, -9.42, -8.53, -8.53, -8.53, -8.22, -8.22, -8.22, -8.22, -7.9, -7.9, -7.9, -7.54, -7.54, -7.54, -7.54, -7.14, -7.14, -7.14, -7.14, -6.7, -7.02, -6.53, -6.53, -5.4, -4.58, -4.17, -3.53, -2.94, -2.0, -1.07, 0.0, 0.0, 1.14, 3.11, 4.08, 3.65, 3.39, 4.8, 5.45, 5.7, 5.46, 4.4, 4.2, 4.2, 3.49, 3.49, 3.32, 2.57, 2.7, 2.7, 1.93, 1.84, 0.76, 1.39, 0.0, 0.0, 0.0, 0.0, 1.33, 1.39, 1.58, 1.64, 0.0, 2.57, 5.4, 0.0, -21.59, -15.27, -0.0, -0.0, 11.16, 10.47, 10.47, 11.5, 12.96, 13.44, 11.44, 10.43, 11.44, 12.39, 12.87, 12.87, 13.86, 13.44, 13.01, 13.41, 12.96, 13.41, -9.86, -9.86, -9.86, -9.86, -9.86, -9.59, -9.59, -9.37, -9.08, -9.08, -8.82, -8.82, -8.53, -8.82, -8.22, -8.22, -8.22, -8.22, -7.61, -7.61, -7.9, -7.9, -7.54, -7.54, -7.54, -7.24, -6.84, -7.14, -7.14, -6.7, -7.02, -6.76, -6.29, -5.77, -5.2, -4.58, -4.17, -2.51, -1.84, -0.97, 0.0, 0.0, 1.14, 1.14, 1.93, 2.42, 3.82, 4.6, 4.4, 4.4, 4.2, 3.88, 3.21, 3.06, 3.06, 2.35, 2.23, 2.35, 1.6, 1.68, 1.84, 0.93, 1.76, 0.0, 1.39, 1.45, 0.0, 0.0, 1.28, 2.71, 1.44, 0.0, 0.0, 0.0, 3.07, 4.99, -30.4, -15.13, -4.38, -0.0, 13.99, 12.65, 10.82, 10.73, 13.01, 13.44, 11.44, 12.65, 13.7, 14.03, 14.11, 14.11, 13.86, 13.86, 13.01, 12.96, 12.96, 12.96, -9.86, -9.86, -9.86, -9.86, -9.86, -9.37, -9.37, -9.37, -9.37, -8.82, -8.82, -8.82, -8.82, -8.22, -8.22, -8.22, -8.22, -8.22, -7.93, -7.61, -7.61, -7.61, -7.61, -7.54, -7.24, -7.24, -7.54, -7.14, -7.14, -6.7, -6.76, -6.76, -6.29, -5.77, -5.2, -4.58, -4.17, -3.42, -2.71, -1.84, -0.97, 0.0, 0.0, 0.0, 1.07, 0.97, 2.71, 3.36, 3.21, 3.21, 3.21, 3.06, 2.35, 2.35, 2.23, 2.23, 1.44, 1.52, 1.6, 1.6, 0.85, 0.89, 0.85, 0.0, 1.39, 1.39, 1.69, 1.69, 2.49, 2.42, 1.28, 0.0, 0.0, 0.0, 0.0, 5.98, 8.14, 14.19, 15.62, 13.91, 16.1, 17.88, 16.6, 12.52, 13.01, 13.86, 12.87, 12.27, 13.7, 14.03, 14.3, 14.3, 13.86, 13.41, 12.96, 12.96, 12.96, 12.96, -9.3, -9.3, -9.3, -9.3, -9.3, -9.37, -9.37, -9.02, -8.78, -8.5, -8.5, -8.5, -8.5, -8.22, -8.22, -8.22, -8.22, -8.22, -8.22, -7.61, -7.61, -7.61, -7.33, -7.33, -6.97, -6.97, -7.26, -6.87, -6.87, -6.45, -6.45, -6.29, -6.29, -5.77, -5.2, -4.87, -4.17, -3.42, -2.61, -1.84, -0.93, 0.0, 0.0, 0.0, 0.0, 1.01, 1.92, 1.62, 2.47, 2.35, 2.35, 2.35, 2.17, 2.17, 1.52, 1.52, 1.44, 1.44, 0.77, 0.81, 0.81, 0.81, 0.0, 0.0, 1.39, 1.39, 2.82, 1.76, 2.49, 2.42, 0.0, 0.0, -1.44, -1.61, 0.0, 3.69, 7.26, 10.6, 14.98, 16.36, 15.71, 19.71, 19.67, 14.66, 13.19, 13.86, 13.88, 12.79, 13.88, 14.3, 13.86, 13.86, 13.86, 13.41, 12.96, 12.96, 12.96, 12.96, -9.3, -9.3, -9.3, -9.3, -9.3, -9.02, -8.78, -8.78, -8.78, -8.5, -8.5, -8.5, -8.22, -8.22, -7.93, -8.22, -8.22, -8.22, -8.22, -7.61, -7.61, -7.61, -7.33, -7.33, -6.97, -6.97, -7.26, -6.87, -6.87, -6.45, -6.45, -6.29, -6.29, -5.77, -5.2, -4.87, -4.17, -3.42, -2.61, -1.7, -0.93, -0.89, 0.0, 0.0, 0.0, 0.0, 0.89, 0.85, 1.62, 1.62, 1.54, 1.54, 1.47, 1.47, 1.47, 1.52, 0.77, 0.73, 0.73, 0.77, 0.77, 0.0, 0.0, 0.0, 0.0, 1.39, 1.39, 2.04, 2.23, 1.18, 0.0, -1.28, -1.39, -1.55, 0.0, 1.58, 5.09, 6.81, 10.2, 11.8, 13.89, 16.63, 25.93, 13.28, 12.01, 14.42, 14.75, 13.99, 14.75, 13.41, 14.3, 12.52, 12.96, 12.96, 12.96, 12.52, 12.52, 12.52, -9.3, -9.3, -9.3, -9.3, -9.3, -8.78, -8.78, -8.78, -8.78, -8.5, -8.5, -8.5, -8.22, -8.22, -7.93, -7.93, -7.93, -8.22, -8.22, -7.93, -7.61, -7.61, -7.33, -7.33, -6.97, -6.97, -7.26, -6.87, -6.87, -6.45, -6.45, -6.29, -5.77, -5.77, -5.2, -4.58, -3.91, -3.42, -3.42, -2.61, -1.7, -0.93, 0.0, 0.0, 0.0, 0.0, 0.89, 0.85, 0.85, 0.82, 1.62, 1.54, 1.54, 1.47, 0.74, 0.71, 0.77, 0.73, 0.0, 0.0, 0.0, 0.0, 0.0, 0.0, 0.0, 0.0, 0.0, 0.0, 0.0, 0.0, 0.0, -1.33, -1.44, 0.0, 0.0, 1.53, 3.3, 3.16, 5.14, 7.14, 11.4, 12.15, 28.61, 10.2, 14.22, 14.79, 16.54, 16.09, 14.3, 13.86, 13.41, 12.07, 12.52, 12.52, 12.52, 12.07, 12.07, 12.07, -8.94, -8.94, -8.73, -9.08, -8.73, -8.78, -8.78, -8.78, -8.78, -8.78, -8.5, -8.5, -8.22, -8.22, -8.22, -7.93, -7.93, -7.93, -8.22, -7.61, -7.61, -7.61, -7.33, -6.97, -6.97, -6.97, -6.87, -6.87, -6.45, -6.45, -5.98, -5.98, -5.77, -5.77, -5.2, -4.58, -3.91, -3.19, -3.42, -2.51, -1.7, -0.86, -0.86, 0.0, 0.0, 0.0, 0.0, 0.85, 0.85, 0.85, 0.82, 0.78, 0.78, 0.74, 0.71, 0.71, 0.0, 0.0, 0.0, 0.0, 0.0, 0.0, 0.0, 0.0, 0.0, 0.0, 0.0, 0.0, 0.0, -1.09, -1.14, -1.23, 0.0, 0.0, 0.0, 1.48, 1.58, 1.51, 3.16, 4.75, 6.42, 10.21, 0.0, -0.0, 5.64, 12.96, 13.99, 13.19, 12.39, 12.96, 12.52, 12.52, 12.07, 12.07, 12.07, 12.07, 12.07, 12.07, -8.73, -8.73, -8.73, -8.73, -8.45, -8.45, -8.78, -8.78, -8.78, -8.78, -8.5, -8.22, -8.22, -8.22, -8.22, -7.93, -7.93, -7.61, -7.61, -7.32, -7.32, -7.61, -6.97, -6.97, -6.97, -6.58, -6.58, -6.45, -6.45, -6.45, -5.98, -5.98, -5.77, -5.77, -5.2, -4.58, -3.91, -3.76, -3.07, -2.51, -1.7, -1.7, -0.86, 0.0, 0.0, 0.0, 0.0, 0.0, 0.0, 0.85, 0.82, 0.82, 0.78, 0.0, 0.0, 0.0, 0.0, 0.0, 0.0, 0.0, 0.0, 0.0, 0.0, 0.0, 0.0, 0.0, 0.0, 0.0, 0.0, 0.0, 0.0, 0.0, 0.0, 0.0, 0.0, 0.0, 0.0, 1.42, 2.89, 4.5, 6.14, 5.53, -26.37, -4.63, 4.41, 10.91, 13.59, 12.3, 10.79, 10.41, 12.52, 12.07, 11.62, 11.18, 11.18, 10.73, 10.73, 10.73, -8.73, -8.73, -8.73, -8.45, -8.45, -8.45, -8.78, -8.78, -8.78, -8.78, -8.22, -8.22, -8.22, -8.22, -8.22, -7.93, -7.93, -7.61, -7.32, -7.32, -7.32, -6.98, -6.98, -6.71, -6.33, -6.33, -6.33, -6.45, -6.45, -5.98, -5.98, -5.98, -5.47, -5.77, -5.2, -4.58, -3.76, -3.76, -3.07, -2.34, -2.51, -1.7, -0.86, -0.86, 0.0, 0.0, 0.0, 0.0, 0.0, 0.0, 0.0, 0.0, 0.0, 0.0, 0.0, 0.0, 0.0, 0.0, 0.0, 0.0, 0.0, -0.63, -0.73, -0.77, -0.77, -0.99, 0.0, 0.0, 0.0, 0.0, -0.98, -1.02, 0.0, 0.0, 0.0, 0.0, 0.0, 1.48, 3.1, 4.66, 6.35, 4.01, 0.0, -6.07, 3.92, 7.8, 10.18, 9.75, 11.03, 10.41, 10.04, 11.62, 10.73, 10.28, 9.83, 9.39, 9.39, 9.39, -8.73, -8.73, -8.45, -8.45, -8.45, -8.45, -8.78, -8.78, -8.78, -8.78, -8.22, -8.22, -8.22, -8.22, -8.22, -8.22, -7.61, -7.61, -7.32, -7.32, -7.32, -6.98, -6.98, -6.61, -6.33, -6.33, -5.92, -6.2, -6.2, -5.75, -5.98, -5.47, -5.47, -5.0, -5.0, -4.4, -3.76, -3.76, -3.07, -3.07, -2.34, -1.7, -1.7, -0.86, 0.0, 0.0, 0.0, 0.0, 0.0, 0.0, 0.0, 0.0, 0.0, 0.0, 0.0, 0.0, 0.0, 0.0, 0.0, 0.0, -0.67, -0.63, -0.63, -0.73, -1.44, -0.99, 0.0, 0.0, 0.0, -0.98, -1.93, -1.93, -3.11, -1.23, -1.33, 0.0, 0.0, 3.14, 3.36, 4.66, 4.66, 3.2, 0.0, 13.28, 12.19, 13.28, 12.79, 10.41, 10.41, 10.84, 9.67, 11.03, 11.18, 10.73, 10.28, 9.83, 9.83, 9.83, -8.73, -8.73, -8.45, -8.45, -8.45, -8.45, -8.45, -8.45, -8.45, -8.19, -8.19, -7.9, -7.9, -7.9, -7.9, -7.6, -7.32, -7.32, -7.32, -7.32, -6.98, -6.98, -6.98, -6.61, -6.61, -6.2, -6.2, -6.2, -5.75, -5.75, -5.26, -5.26, -4.73, -4.73, -5.0, -4.4, -3.76, -3.76, -3.07, -3.07, -2.34, -1.7, -1.7, -0.86, -0.86, 0.0, 0.0, 0.0, 0.0, 0.0, 0.0, 0.0, 0.0, 0.0, 0.0, 0.0, 0.0, -0.67, -0.67, -0.67, -0.67, -0.63, -1.25, -1.25, -1.36, -1.28, -0.93, -0.93, -0.93, -0.98, -1.02, -2.23, -3.25, -4.4, -2.71, -1.44, 0.0, 1.61, 3.25, 3.36, 3.1, 3.1, 2.02, 16.99, 15.13, 12.34, 11.38, 10.8, 10.41, 10.73, 10.84, 10.84, 11.28, 10.96, 10.58, 9.7, 9.7, 9.7, -8.73, -8.73, -8.45, -8.45, -8.45, -8.45, -8.45, -8.19, -8.19, -8.19, -8.19, -7.9, -7.9, -7.9, -7.6, -7.6, -7.6, -7.32, -7.32, -6.98, -6.98, -6.98, -6.61, -6.61, -6.61, -6.2, -6.2, -5.75, -5.75, -5.75, -5.26, -5.26, -5.26, -4.73, -4.73, -4.4, -3.76, -3.76, -3.07, -3.07, -2.34, -2.51, -1.7, -1.7, -0.86, -0.86, -0.82, -0.82, 0.0, 0.0, 0.0, 0.0, 0.0, 0.0, 0.0, -0.71, -0.71, -0.71, -0.67, -0.67, -1.25, -1.25, -1.25, -1.25, -1.84, -2.0, -1.84, -0.93, -0.89, 0.0, 0.0, -1.02, -2.23, -3.61, -3.61, -2.71, 0.0, 0.0, 1.61, 1.61, 1.48, 1.53, 2.43, 12.19, 12.39, 11.8, 11.7, 10.79, 11.28, 9.97, 10.96, 10.96, 11.28, 11.4, 10.58, 10.14, 10.14, 10.14, -8.73, -8.73, -8.45, -8.45, -8.45, -8.19, -8.19, -8.19, -8.19, -8.19, -8.19, -7.9, -7.9, -7.6, -7.6, -7.6, -7.6, -6.98, -6.98, -6.98, -6.98, -6.7, -6.61, -6.61, -6.2, -6.2, -6.2, -5.75, -5.75, -5.75, -5.26, -5.26, -5.26, -4.73, -4.15, -4.15, -3.76, -3.76, -3.07, -3.07, -2.34, -2.34, -1.7, -1.7, -1.7, -0.8, -0.8, -0.82, -0.82, -0.79, -0.79, -0.75, -0.72, -0.69, -0.69, -0.71, -0.71, -0.71, -1.32, -1.32, -1.25, -1.25, -1.84, -1.84, -1.84, -2.4, -2.0, -1.25, -0.93, 0.0, 0.0, 0.0, 0.0, 0.0, 0.0, -1.52, 0.0, 0.0, 1.55, 1.55, 1.61, 3.36, 16.39, 3.73, 3.79, 6.97, 9.12, 9.17, 10.04, 10.4, 10.84, 10.84, 10.84, 10.96, 9.96, 9.75, 9.75, 9.75, -8.73, -8.73, -8.45, -8.45, -8.19, -8.19, -8.19, -8.19, -8.19, -8.19, -8.19, -8.19, -7.6, -7.6, -7.6, -7.6, -7.6, -7.27, -6.98, -6.98, -6.7, -6.34, -6.34, -6.61, -6.2, -6.2, -5.75, -5.75, -5.75, -5.0, -5.0, -5.0, -4.73, -4.15, -4.15, -4.15, -3.53, -3.53, -2.88, -3.07, -3.07, -2.34, -2.51, -1.7, -1.58, -1.58, -1.58, -0.76, -0.82, -0.82, -0.79, -0.79, -0.72, -0.72, -0.69, -0.65, -0.71, -1.4, -1.32, -1.32, -1.32, -1.84, -1.84, -1.84, -1.95, -2.54, -2.54, -1.95, -1.84, -0.97, 0.0, 0.0, 0.0, 0.0, 0.98, 0.98, 0.0, 0.0, 0.0, 1.55, 3.04, 5.28, 13.28, 4.73, 3.38, 5.65, 6.2, 6.44, 7.59, 7.9, 9.3, 10.4, 11.28, 10.38, 10.38, 9.33, 9.33, 9.33, -8.73, -8.73, -8.73, -8.45, -8.19, -8.19, -8.19, -8.19, -8.19, -8.19, -8.19, -7.9, -7.9, -7.3, -7.3, -7.3, -6.98, -6.98, -6.7, -6.7, -6.7, -6.34, -6.34, -5.95, -5.95, -5.95, -5.52, -5.75, -5.75, -5.26, -5.26, -4.73, -4.15, -4.15, -4.15, -4.15, -3.53, -3.53, -3.53, -3.07, -3.07, -2.34, -2.25, -2.25, -1.52, -1.52, -1.52, -1.52, -1.52, -1.52, -1.56, -1.56, -1.43, -1.43, -1.36, -1.36, -1.29, -1.29, -1.32, -1.32, -1.95, -1.95, -1.95, -1.95, -2.54, -2.54, -2.69, -2.69, -2.69, -1.92, -0.89, -0.89, 0.0, 0.0, 0.0, 0.0, 0.0, 0.0, 0.0, 1.5, 3.44, 8.31, 9.92, 21.01, 7.86, 6.75, 7.2, 5.98, 6.71, 7.9, 8.22, 10.4, 10.4, 10.4, 10.38, 9.55, 9.55, 9.55, -8.73, -8.73, -8.73, -8.45, -8.19, -8.19, -8.19, -8.19, -8.19, -7.9, -7.9, -7.59, -7.59, -7.3, -7.3, -7.3, -6.98, -6.98, -6.98, -6.7, -6.7, -6.34, -6.34, -5.95, -5.95, -5.95, -5.52, -5.52, -5.52, -5.05, -5.26, -4.73, -4.73, -3.98, -3.98, -3.98, -3.53, -3.53, -3.53, -2.88, -3.07, -2.95, -2.25, -2.25, -2.25, -2.25, -1.52, -1.52, -1.52, -1.52, -1.45, -1.5, -1.43, -1.43, -1.36, -1.36, -1.29, -1.29, -1.91, -1.81, -1.95, -1.95, -1.95, -2.54, -2.54, -2.69, -3.27, -3.27, -3.27, -2.71, -1.84, -1.92, -1.84, -0.98, -0.98, -0.98, -1.09, 0.0, 0.0, 0.0, 6.43, 6.88, 7.0, 15.38, 15.56, 7.61, 6.08, 5.64, 4.15, 6.71, 8.22, 9.3, 9.66, 9.3, 9.58, 9.58, 9.58, 9.58, -9.01, -9.01, -8.73, -8.73, -8.19, -8.19, -8.19, -8.19, -7.86, -7.59, -7.59, -7.59, -7.59, -7.59, -7.3, -7.3, -6.98, -6.98, -6.98, -6.98, -6.7, -6.34, -6.34, -5.95, -5.95, -5.95, -5.52, -5.52, -5.52, -5.05, -5.05, -4.54, -4.54, -4.54, -3.98, -3.98, -3.98, -3.53, -3.53, -3.53, -3.07, -2.95, -2.95, -2.25, -2.25, -2.25, -2.25, -2.25, -2.25, -2.25, -2.15, -1.5, -1.5, -1.43, -1.36, -1.36, -1.91, -1.91, -1.91, -1.91, -1.81, -1.95, -2.54, -2.69, -2.69, -2.69, -3.44, -3.44, -4.0, -3.82, -2.71, -2.71, -1.76, -0.93, -0.93, -0.93, 0.0, 0.0, 0.0, 2.82, 4.39, 4.71, 5.18, 10.89, 19.71, 7.61, 3.23, 2.57, 4.65, 4.32, 6.97, 6.97, 8.53, 9.66, 9.3, 9.97, 9.97, 9.97, -8.65, -8.65, -8.38, -8.38, -8.15, -7.86, -7.86, -7.86, -7.59, -7.59, -7.59, -7.59, -7.59, -7.59, -7.59, -7.3, -6.98, -6.98, -6.98, -6.98, -6.63, -6.34, -6.08, -6.08, -5.95, -5.95, -5.52, -5.52, -5.52, -5.05, -5.05, -5.05, -4.54, -4.54, -4.54, -3.98, -3.98, -3.98, -3.39, -3.61, -3.61, -2.95, -2.95, -2.95, -2.95, -2.25, -2.25, -2.25, -2.25, -2.25, -2.15, -2.21, -2.21, -2.11, -2.01, -2.01, -1.91, -1.91, -1.91, -1.91, -2.5, -2.5, -2.69, -2.69, -2.69, -3.05, -3.21, -3.44, -4.0, -3.75, -2.58, -1.84, -0.93, -0.85, 0.0, 0.0, 0.0, 0.98, 1.14, 1.44, 3.04, 3.25, 3.2, 7.4, 21.63, 3.92, -0.0, -0.0, -0.0, 2.2, 3.96, 4.48, 6.44, 7.78, 8.53, 9.42, 9.42, 9.42, -8.65, -8.65, -8.65, -8.38, -8.15, -8.15, -7.86, -7.86, -7.59, -7.59, -7.59, -7.59, -7.59, -7.59, -7.59, -7.28, -6.98, -6.98, -6.98, -6.63, -6.35, -6.35, -6.35, -5.7, -5.7, -5.7, -5.52, -5.52, -5.52, -5.52, -5.05, -5.05, -5.05, -4.54, -4.54, -4.54, -3.98, -3.98, -3.98, -3.61, -3.61, -3.61, -2.95, -2.95, -2.95, -2.95, -2.95, -2.95, -2.25, -2.25, -2.15, -2.21, -2.21, -2.11, -2.11, -2.01, -1.91, -1.91, -1.91, -2.5, -2.5, -2.5, -2.5, -2.69, -3.05, -3.05, -3.21, -3.21, -4.0, -3.75, -3.16, -2.71, -0.93, 0.0, 0.0, 0.0, 0.98, 0.0, 0.0, 0.0, 0.0, 1.61, 1.77, 6.16, 19.93, -0.0, -6.02, -2.28, -0.0, -0.0, -0.0, 1.77, 3.32, 5.6, 8.01, 9.27, 9.27, 9.27, -8.65, -8.65, -8.65, -8.65, -8.15, -8.15, -8.15, -7.86, -7.59, -7.59, -7.59, -7.59, -7.59, -7.28, -7.28, -6.98, -6.69, -6.69, -6.69, -6.35, -6.35, -6.35, -6.35, -5.98, -5.7, -5.7, -5.29, -5.52, -5.52, -5.52, -5.05, -5.05, -5.05, -5.05, -4.54, -4.54, -4.54, -3.98, -4.23, -4.23, -3.61, -3.61, -3.61, -3.61, -2.95, -2.95, -2.95, -2.95, -2.95, -2.15, -2.15, -2.06, -2.06, -2.11, -2.11, -2.01, -2.01, -2.5, -2.5, -2.5, -2.5, -2.5, -2.5, -3.05, -3.05, -3.05, -3.21, -3.21, -3.75, -4.0, -3.93, -3.16, -1.33, 0.0, 0.0, 0.0, 0.0, 0.0, 0.0, -1.18, -1.44, 0.0, 1.96, 5.81, 13.28, 17.7, -3.97, -5.16, -2.21, -0.0, -0.0, 1.9, 3.14, 6.21, 7.28, 8.85, 8.85, 8.85, -8.65, -8.65, -8.65, -8.65, -8.15, -8.15, -8.15, -7.86, -7.59, -7.59, -7.59, -7.59, -7.59, -7.28, -7.28, -6.98, -6.69, -6.69, -6.69, -6.35, -6.35, -6.35, -6.35, -5.98, -5.7, -5.7, -5.29, -5.52, -5.52, -5.52, -5.05, -5.05, -5.05, -5.05, -4.54, -4.54, -4.54, -3.98, -4.23, -4.23, -3.61, -3.61, -3.61, -3.61, -2.95, -2.95, -2.95, -2.95, -2.95, -2.15, -2.15, -2.06, -2.06, -2.11, -2.11, -2.01, -2.01, -2.5, -2.5, -2.5, -2.5, -2.5, -2.5, -3.05, -3.05, -3.05, -3.21, -3.21, -3.75, -4.0, -3.93, -3.16, -1.33, 0.0, 0.0, 0.0, 0.0, 0.0, 0.0, -1.18, -1.44, 0.0, 1.9, 5.63, 7.98, 12.57, 23.69, -0.0, -0.0, -0.0, -0.0, 2.02, 3.81, 6.65, 7.28, 7.85, 7.85, 7.85]}]